[{"header": {"dx": 0.06612293990616946, "dy": 0.0552356325346848, "nx": 98, "ny": 59, "la1": 35.046912555036876, "la2": 31.78801023549047, "lo1": -121.43107172385933, "lo2": -114.95102361305473, "refTime": "2026040903", "parameterCategory": 1, "parameterNumber": 2}, "data": [9.21, 9.21, 9.21, 9.21, 8.94, 9.3, 9.3, 9.02, 9.37, 9.02, 8.15, 6.87, 5.77, 3.32, 4.41, 2.68, 2.24, 2.6, 2.12, 2.24, 2.68, 3.04, 4.85, 5.81, 6.26, 6.26, 5.36, 2.68, 0.57, 0.0, -0.71, -0.57, 0.0, 0.0, 0.57, 1.86, 2.4, 2.4, 2.4, 2.5, 3.07, 2.84, 4.29, 6.18, 8.23, 10.29, 12.52, 13.76, 14.74, 11.83, 4.47, 0.7, 2.11, 3.72, 4.43, 5.09, 6.44, 7.03, 7.89, 7.98, 8.19, 7.71, 7.71, 7.21, 6.51, 6.36, 6.79, 7.71, 8.19, 9.58, 10.62, 11.15, 10.25, 8.49, 8.05, 8.94, 9.39, 9.39, 8.46, 5.77, 4.02, 4.47, 5.81, 5.77, 6.21, 5.78, 4.87, 3.58, 3.58, 2.5, 0.65, -0.0, 0.57, 1.26, 2.12, 2.17, 2.17, 2.4, 9.21, 9.21, 9.21, 9.21, 8.94, 9.3, 9.3, 9.3, 9.02, 8.73, 7.51, 6.73, 5.82, 4.0, 5.81, 5.2, 2.24, 2.24, 2.24, 2.24, 2.24, 2.68, 3.13, 5.36, 5.36, 5.36, 4.85, 3.47, 1.26, 0.0, -1.0, -0.71, -0.57, 0.0, 1.26, 1.86, 2.8, 2.91, 3.32, 3.07, 2.84, 4.11, 6.01, 7.9, 10.18, 11.76, 13.07, 13.8, 10.9, 3.13, 1.55, 2.29, 3.72, 4.11, 4.11, 5.46, 6.07, 7.35, 7.98, 8.63, 8.63, 8.19, 7.89, 7.45, 6.07, 6.07, 6.79, 7.45, 8.36, 9.26, 10.62, 10.7, 9.81, 8.94, 8.49, 8.94, 9.39, 9.39, 8.46, 5.77, 4.02, 4.47, 5.81, 5.77, 6.21, 5.78, 4.87, 3.58, 3.58, 2.5, 0.65, -0.0, 0.57, 1.26, 2.12, 2.17, 2.17, 2.4, 9.21, 9.21, 9.21, 9.21, 8.94, 9.3, 9.3, 9.3, 9.02, 8.15, 6.32, 5.38, 4.81, 5.34, 5.16, 4.85, 2.68, 2.6, 2.6, 2.12, 2.12, 2.12, 2.23, 3.04, 5.73, 5.81, 4.47, 3.51, 1.86, 0.0, -1.2, -1.2, -1.24, 0.0, 1.26, 2.23, 3.07, 3.45, 3.83, 3.84, 5.06, 6.51, 8.37, 9.95, 10.89, 11.92, 11.82, 8.06, 2.68, 2.2, 3.11, 4.43, 4.46, 4.46, 3.79, 5.09, 6.4, 7.47, 8.19, 8.63, 8.8, 8.36, 7.89, 6.98, 5.59, 5.34, 6.36, 7.45, 8.36, 9.26, 10.62, 11.52, 11.18, 9.83, 8.05, 8.9, 10.25, 10.28, 8.84, 5.31, 3.97, 4.87, 6.66, 6.66, 5.64, 4.87, 4.43, 4.02, 3.58, 2.4, 0.57, 0.6, 0.63, 1.34, 1.34, 1.6, 1.24, 1.61, 9.21, 9.21, 9.21, 9.21, 9.3, 9.3, 9.3, 9.3, 8.73, 7.55, 6.32, 5.1, 4.43, 3.07, 2.8, 3.74, 3.95, 3.04, 2.6, 2.17, 2.17, 2.12, 2.23, 2.6, 3.32, 4.47, 4.02, 3.95, 2.5, 0.0, -1.49, -2.3, -2.15, -0.65, 0.85, 2.21, 3.22, 4.89, 5.37, 5.94, 6.97, 8.56, 9.22, 9.7, 9.23, 8.68, 5.86, 3.2, 3.72, 4.43, 4.75, 4.81, 4.46, 4.46, 4.12, 5.43, 6.79, 7.28, 8.36, 8.36, 8.8, 8.46, 7.56, 5.16, 4.8, 5.34, 6.79, 7.76, 8.48, 9.46, 10.93, 11.96, 11.6, 10.28, 8.38, 7.71, 9.58, 12.3, 9.72, 4.66, 3.32, 4.24, 6.55, 6.07, 3.97, 3.51, 3.97, 3.97, 3.13, 1.26, 0.6, 0.63, 0.89, 0.45, -0.0, -0.0, 0.61, 0.59, 9.21, 9.21, 9.21, 9.21, 9.58, 9.3, 9.3, 9.3, 8.38, 7.23, 6.32, 5.08, 4.81, 2.5, 3.45, 4.4, 4.24, 3.07, 2.8, 1.9, 1.49, 2.23, 2.23, 2.12, 2.12, 2.54, 3.04, 3.9, 2.84, 0.7, -0.66, -2.29, -2.35, -0.78, 1.1, 3.4, 3.6, 5.46, 7.08, 6.87, 7.9, 7.44, 6.95, 6.07, 5.64, 4.92, 5.34, 5.43, 5.43, 5.43, 4.46, 5.43, 4.84, 4.46, 4.8, 5.86, 6.55, 7.45, 7.92, 8.46, 8.49, 7.56, 5.64, 4.0, 4.93, 6.28, 7.21, 7.28, 7.89, 9.33, 11.23, 13.05, 13.25, 11.6, 8.91, 7.06, 7.67, 10.43, 10.02, 4.52, 2.5, 3.07, 6.28, 6.07, 3.74, 3.32, 3.82, 3.39, 1.79, -0.0, -0.0, 0.32, 0.45, -0.0, -0.61, -0.0, -0.0, 0.66, 9.21, 9.21, 9.21, 9.58, 9.58, 9.5, 9.3, 8.73, 8.15, 6.95, 5.1, 3.84, 3.79, 4.19, 4.22, 3.83, 3.45, 3.83, 3.84, 3.72, 2.47, 1.41, 1.08, 1.49, 2.23, 2.6, 3.16, 2.95, 1.99, 0.0, 0.0, -1.41, -1.52, 0.0, 1.47, 2.97, 3.7, 6.31, 7.73, 6.2, 4.83, 4.22, 3.84, 5.31, 6.71, 7.15, 7.12, 6.66, 5.64, 5.16, 5.09, 5.16, 4.66, 4.66, 5.16, 6.21, 6.66, 7.11, 8.01, 8.94, 8.49, 6.22, 4.24, 4.8, 5.86, 6.79, 6.98, 6.98, 6.79, 8.63, 10.93, 12.62, 13.78, 13.96, 12.05, 8.82, 6.07, 5.72, 5.34, 3.97, 1.61, 2.51, 5.09, 5.6, 4.0, 4.09, 3.49, 2.23, 0.0, -0.45, 0.45, 0.45, -0.0, -0.0, -0.63, -0.0, 0.57, 0.59, 8.84, 9.21, 9.21, 9.21, 9.76, 9.76, 9.3, 8.73, 7.81, 6.04, 4.47, 3.49, 4.11, 4.84, 6.13, 2.86, 3.83, 4.81, 5.37, 4.71, 3.47, 2.18, 0.73, 0.77, 2.21, 2.99, 3.17, 2.09, 0.0, 0.0, -0.76, -1.4, -0.7, 0.82, 2.12, 2.83, 3.78, 5.69, 6.69, 4.83, 3.0, 1.98, 3.0, 5.37, 7.64, 8.0, 7.71, 6.21, 4.92, 6.71, 7.15, 4.92, 4.41, 4.41, 5.36, 5.81, 6.26, 6.26, 7.6, 8.94, 8.05, 6.21, 4.66, 5.16, 6.07, 6.98, 6.98, 6.21, 6.21, 8.46, 10.25, 11.08, 12.43, 14.57, 15.12, 12.96, 7.45, 2.5, 2.5, 3.32, 2.5, 2.48, 5.06, 6.06, 5.06, 4.42, 2.07, 0.0, -1.2, -1.34, -0.89, -0.0, -0.0, -0.0, -0.0, 0.63, 0.59, 0.59, 8.84, 9.21, 9.21, 9.21, 9.76, 9.76, 9.3, 8.38, 7.23, 5.71, 3.85, 2.82, 3.63, 3.84, 6.7, 4.46, 4.09, 5.72, 5.72, 4.46, 4.4, 4.4, 3.79, 3.09, 2.28, 2.97, 3.3, 1.07, -0.96, -1.99, -1.99, -1.99, -1.05, 0.95, 3.44, 3.78, 3.78, 4.71, 6.4, 5.46, 4.22, 3.17, 3.25, 5.2, 5.43, 5.2, 5.09, 5.34, 5.31, 7.08, 3.97, 3.58, 4.47, 4.92, 5.36, 5.81, 5.81, 5.81, 8.05, 8.49, 8.05, 6.26, 4.92, 5.77, 5.77, 6.21, 7.11, 6.71, 6.26, 7.6, 9.83, 10.73, 12.07, 13.86, 14.75, 13.86, 11.15, 4.92, 3.13, 3.82, 4.4, 3.43, 4.22, 4.87, 4.37, 2.04, 0.0, -1.58, -1.86, -1.34, -0.54, -0.0, -0.0, -0.0, 0.72, 1.41, 1.13, 0.59, 8.65, 9.21, 9.21, 9.21, 9.38, 9.76, 9.3, 8.38, 6.95, 5.1, 3.84, 2.92, 3.35, 4.2, 5.36, 4.65, 4.95, 5.37, 4.46, 2.5, 2.97, 6.17, 7.42, 6.4, 4.29, 3.35, 2.26, 0.0, -1.05, -2.12, -1.05, -1.07, 0.0, 1.13, 2.25, 3.06, 4.2, 4.54, 5.21, 3.91, 1.6, 1.83, 3.4, 1.98, 0.76, 0.0, 0.87, 2.95, 4.4, 4.66, 5.94, 3.13, 3.58, 4.92, 5.36, 5.81, 6.26, 7.15, 8.05, 8.49, 8.05, 6.71, 5.36, 4.92, 5.31, 6.66, 7.56, 7.6, 6.71, 8.01, 9.36, 11.15, 13.32, 13.79, 13.79, 12.52, 10.73, 9.36, 8.49, 8.05, 6.22, 3.78, 4.36, 3.47, 1.23, 0.0, -1.24, -2.4, -1.79, -1.0, -0.57, -0.61, -0.59, -0.0, 1.3, 2.73, 2.51, 1.33, 8.65, 8.84, 9.21, 9.21, 9.21, 9.76, 9.21, 8.65, 6.64, 5.1, 4.46, 4.44, 5.29, 5.17, 5.06, 4.87, 5.72, 5.93, 4.54, 3.25, 4.2, 5.72, 7.27, 7.47, 5.72, 3.99, 2.8, 0.96, 0.0, 0.0, 0.0, 0.0, 0.0, 0.0, 0.0, 1.04, 4.2, 4.71, 1.74, 0.89, 1.2, 1.2, 1.88, 0.99, 0.0, -0.45, 0.0, 0.54, 1.86, 2.24, 2.24, 2.68, 3.58, 4.92, 5.36, 5.81, 6.26, 7.6, 8.05, 8.46, 8.01, 6.71, 7.15, 4.47, 4.85, 4.87, 7.6, 8.49, 7.15, 7.45, 9.11, 11.42, 13.12, 13.7, 13.34, 12.5, 10.62, 9.72, 9.36, 10.7, 10.26, 8.38, 5.86, 5.86, 3.07, 1.6, -0.0, 0.0, 0.71, 0.66, -0.0, -0.0, -0.0, -0.0, 1.23, 2.73, 2.51, 1.84, 8.65, 8.84, 9.21, 9.21, 9.21, 9.21, 9.21, 8.08, 6.64, 5.72, 5.09, 5.98, 6.71, 6.96, 6.43, 6.0, 7.45, 6.33, 5.34, 4.63, 4.75, 5.87, 6.72, 6.73, 6.21, 4.4, 3.14, 3.14, 1.05, 0.0, 1.04, 0.72, 0.0, -0.71, -0.7, 0.0, 3.11, 0.76, 0.0, 0.6, 0.95, 1.34, 1.26, 1.9, 1.58, 0.45, -0.0, -0.0, -0.0, 0.63, 1.34, 2.24, 3.58, 4.92, 4.92, 5.81, 6.71, 7.56, 8.46, 8.36, 7.11, 4.47, 3.04, 3.04, 4.24, 5.59, 6.98, 7.45, 7.15, 7.21, 8.4, 10.1, 11.52, 11.75, 11.89, 11.89, 10.98, 8.91, 8.4, 9.75, 9.62, 8.84, 8.38, 9.15, 8.49, 5.6, 3.14, 3.07, 4.46, 3.43, 1.76, 0.63, -0.0, -0.0, 1.41, 2.48, 2.51, 2.23, 8.65, 8.65, 8.84, 9.21, 9.21, 9.21, 9.21, 8.08, 6.92, 5.72, 6.35, 6.98, 7.61, 7.95, 8.24, 7.95, 7.33, 6.67, 6.36, 5.81, 5.64, 5.85, 5.18, 6.18, 5.4, 5.43, 5.69, 3.84, 4.03, 1.41, 0.7, 1.49, 2.12, 1.58, 0.63, 0.0, 0.0, 0.45, 0.0, 0.95, 1.26, 0.89, 0.4, 1.27, 2.48, 0.6, 0.45, 0.89, 0.89, 0.89, 1.7, 2.6, 3.07, 4.47, 4.47, 5.36, 6.71, 7.6, 7.56, 6.21, 2.68, 1.86, 1.58, 1.9, 2.21, 4.43, 5.3, 6.06, 5.75, 4.87, 5.81, 7.12, 8.38, 8.63, 9.11, 10.25, 10.25, 8.82, 7.73, 6.8, 4.24, 4.02, 4.92, 8.9, 8.47, 8.67, 8.0, 7.06, 6.54, 4.73, 2.79, 1.13, -0.0, -0.0, 1.27, 2.07, 2.51, 2.23, 8.65, 8.65, 8.84, 9.21, 9.21, 9.21, 9.21, 8.08, 6.92, 6.34, 6.97, 7.3, 7.61, 8.56, 9.46, 9.72, 9.37, 7.59, 6.34, 6.29, 6.94, 6.94, 6.29, 4.47, 4.11, 4.94, 5.89, 7.08, 6.9, 5.4, 3.82, 4.02, 4.02, 3.13, 0.89, -0.89, -0.63, -0.0, -0.0, 0.63, 0.63, 0.45, 0.0, 0.0, 0.0, 0.76, 0.76, 0.0, 0.65, 1.4, 1.33, 1.84, 2.79, 3.79, 3.93, 4.4, 4.34, 6.71, 5.36, 0.89, -0.6, -0.0, 0.76, 0.7, 1.55, 1.52, 2.82, 3.15, 4.03, 5.3, 6.39, 6.08, 5.86, 5.36, 6.79, 8.4, 7.98, 6.07, 3.51, 2.24, 2.17, 3.07, 4.43, 5.31, 6.55, 7.89, 9.49, 9.18, 7.33, 5.2, 3.49, 2.07, 0.59, -0.0, 0.59, 1.84, 1.84, 1.84, 8.65, 8.65, 8.84, 8.84, 9.21, 9.21, 8.84, 8.37, 7.17, 6.64, 6.97, 7.6, 7.93, 8.56, 9.77, 10.36, 10.59, 8.94, 7.17, 6.95, 7.81, 8.73, 8.38, 8.15, 7.58, 8.06, 9.14, 10.5, 11.05, 10.67, 9.77, 8.36, 7.97, 2.91, 0.32, -1.2, -0.6, -0.0, -0.0, 0.45, 1.2, 0.6, 0.0, 1.05, 1.04, 1.04, 0.76, 0.0, 0.0, 0.0, 1.03, 1.96, 3.35, 2.99, 1.98, 1.41, 1.4, 2.97, 2.68, -0.45, -1.9, -0.87, -0.0, 0.79, 0.73, 0.73, 0.67, 0.7, 3.4, 4.56, 6.42, 5.49, 3.07, 2.6, 3.07, 4.66, 3.13, 2.6, 2.4, 2.8, 2.8, 4.41, 5.78, 6.67, 5.64, 7.71, 9.83, 10.01, 8.25, 6.25, 5.05, 3.16, 1.27, 0.66, 0.59, 1.33, 1.84, 2.07, 8.65, 8.65, 8.65, 8.84, 9.21, 9.21, 8.84, 8.37, 7.17, 7.51, 7.27, 7.9, 8.53, 8.85, 9.77, 10.69, 10.94, 10.23, 8.94, 8.08, 8.29, 9.21, 10.16, 10.71, 10.91, 11.13, 11.74, 12.21, 12.75, 12.75, 12.75, 11.74, 10.7, 6.0, 2.8, -0.0, -0.0, -0.0, 1.4, 0.89, 1.6, 3.72, 2.4, 1.07, 1.11, 1.11, 1.11, 0.0, 0.0, 0.0, 0.0, 2.09, 1.84, 0.76, 0.0, 0.0, 0.0, 2.0, 1.9, 0.45, -0.65, -0.76, -0.0, 0.65, 1.49, 0.71, -0.0, 0.95, 1.58, 2.95, 3.72, 2.07, 0.57, -0.0, 0.89, 1.86, 2.86, 4.46, 5.43, 5.34, 5.59, 6.21, 6.67, 7.15, 5.36, 6.21, 8.36, 9.58, 8.97, 7.89, 6.0, 4.41, 2.73, 1.35, 1.35, 1.8, 2.07, 2.07, 8.65, 8.65, 8.65, 9.1, 8.84, 9.21, 8.65, 8.37, 7.8, 7.51, 7.81, 8.19, 8.82, 9.13, 9.72, 10.36, 10.94, 10.88, 10.23, 9.59, 9.3, 9.5, 10.3, 11.2, 11.92, 12.6, 13.26, 13.44, 13.88, 13.57, 13.57, 14.0, 12.21, 10.08, 5.26, 1.2, 0.65, 1.4, 3.16, 3.13, 2.12, 2.15, 3.48, 1.05, 0.0, 0.0, 0.0, 0.99, 0.99, 0.0, 1.14, 0.76, 1.58, 0.89, 0.89, 0.89, 1.49, 1.8, 2.6, 1.86, 1.16, 1.19, 1.27, 2.53, 1.6, 1.34, 1.2, 0.89, 1.58, 1.4, 1.2, -0.0, -0.89, -0.45, 0.8, 1.84, 4.95, 7.41, 7.67, 7.03, 7.35, 7.21, 6.98, 6.66, 5.36, 3.74, 5.77, 6.71, 7.6, 6.51, 5.43, 3.38, 2.11, 2.11, 2.6, 2.48, 2.23, 2.23, 8.29, 8.65, 8.93, 8.93, 9.1, 8.84, 8.65, 8.08, 7.51, 7.51, 7.81, 8.45, 9.08, 9.13, 9.72, 10.3, 10.36, 10.94, 10.65, 10.59, 10.51, 10.41, 10.58, 11.08, 12.11, 12.78, 13.88, 14.78, 14.93, 15.36, 15.02, 15.48, 14.57, 12.79, 3.82, 1.79, 1.86, 3.04, 3.13, 4.77, 3.79, 1.88, 3.48, 0.65, 0.0, -1.26, 0.89, -0.0, 1.58, 1.79, 1.79, 1.79, 2.4, 2.8, 2.97, 4.02, 4.77, 5.26, 5.2, 4.43, 3.45, 3.49, 3.16, 3.72, 4.34, 2.24, 1.6, 0.0, 0.45, 0.8, 0.89, 0.0, 0.0, 0.89, 2.21, 3.22, 5.86, 9.27, 10.29, 9.3, 8.67, 8.24, 7.6, 6.85, 6.21, 3.58, 3.07, 3.58, 3.51, 3.49, 5.06, 4.02, 2.66, 2.73, 2.98, 3.12, 2.86, 2.86, 8.29, 8.65, 8.93, 8.93, 9.1, 9.1, 8.65, 8.08, 7.73, 7.51, 8.08, 8.73, 9.37, 9.42, 9.72, 10.23, 10.65, 10.94, 10.94, 10.8, 11.07, 10.96, 10.68, 10.62, 11.56, 13.1, 14.47, 15.36, 15.82, 16.28, 16.28, 16.28, 16.28, 14.93, 11.28, 7.71, 3.07, 3.58, 4.98, 3.93, 2.41, 1.8, 0.7, 0.0, -1.79, -1.26, -0.0, -0.0, 1.2, 1.4, 2.84, 2.23, 2.84, 3.35, 4.24, 4.34, 5.2, 5.4, 4.74, 4.19, 4.74, 4.43, 4.29, 4.4, 5.36, 2.24, 1.7, 0.57, 0.85, 1.49, 2.23, 3.07, 3.58, 4.24, 4.09, 3.48, 6.06, 9.67, 11.44, 10.23, 9.2, 8.24, 8.4, 6.85, 5.59, 4.66, 3.51, 2.6, 2.4, 2.53, 3.72, 4.29, 4.07, 3.15, 3.07, 3.48, 4.11, 4.11, 8.29, 8.29, 8.93, 8.93, 8.93, 9.1, 8.65, 8.08, 7.73, 7.73, 8.08, 8.73, 9.02, 9.66, 9.42, 10.24, 10.3, 10.36, 10.23, 10.41, 11.75, 12.03, 10.68, 9.84, 10.15, 13.2, 12.6, 15.1, 15.61, 14.9, 15.86, 16.33, 16.33, 16.33, 14.95, 11.62, 7.64, 6.04, 6.53, 5.44, 3.38, 2.2, 0.7, -1.0, -2.24, -0.0, -0.0, 1.9, 1.4, 2.53, 2.84, 2.48, 3.16, 3.16, 3.79, 4.65, 4.65, 4.43, 4.74, 4.43, 4.65, 4.65, 4.8, 3.04, 3.13, 2.68, 2.17, 2.21, 2.84, 3.6, 5.36, 8.91, 11.66, 12.37, 10.32, 6.55, 5.36, 8.49, 10.7, 11.06, 8.82, 8.91, 8.05, 6.71, 5.77, 4.87, 4.41, 4.0, 3.2, 2.21, 2.51, 3.72, 4.11, 3.48, 3.49, 3.16, 3.49, 3.49, 8.29, 8.29, 8.55, 8.93, 8.93, 8.93, 8.93, 8.08, 8.08, 8.08, 8.44, 8.73, 9.3, 9.59, 9.66, 10.01, 10.65, 9.17, 8.53, 8.27, 11.53, 12.27, 11.23, 10.24, 9.85, 11.52, 12.52, 12.82, 14.29, 14.67, 15.42, 15.42, 15.73, 16.35, 15.93, 14.03, 10.83, 8.15, 6.92, 5.78, 4.69, 3.88, 3.2, 1.79, 0.63, -0.0, 1.9, 2.8, 2.8, 2.53, 2.84, 2.48, 2.73, 2.4, 1.88, 1.84, 4.47, 2.84, 2.5, 4.8, 4.4, 4.0, 4.77, 5.36, 3.13, 2.68, 1.79, 1.79, 3.13, 4.66, 7.47, 10.68, 14.17, 16.09, 15.18, 11.52, 8.63, 7.68, 9.83, 9.72, 9.81, 9.83, 8.94, 6.71, 4.92, 4.87, 4.73, 4.37, 3.45, 2.53, 2.15, 2.84, 4.09, 3.49, 3.14, 3.14, 3.49, 3.49, 8.29, 8.29, 8.55, 8.93, 8.93, 8.93, 8.65, 8.29, 8.08, 8.08, 8.65, 8.94, 9.3, 9.86, 9.94, 10.23, 10.3, 9.46, 7.61, 8.37, 11.06, 11.96, 11.67, 11.03, 11.06, 11.67, 11.96, 12.22, 13.66, 14.23, 14.95, 15.21, 15.35, 15.19, 15.42, 14.73, 12.03, 9.3, 7.64, 7.31, 7.4, 7.13, 7.6, 6.71, 4.44, 4.24, 3.2, 3.58, 3.58, 3.2, 3.6, 3.16, 2.2, 1.3, 2.16, 1.84, 2.98, 3.38, 4.11, 3.39, 3.39, 3.35, 4.77, 5.36, 2.68, 1.7, 0.57, -0.0, 0.66, 3.11, 5.49, 8.6, 12.7, 14.11, 13.84, 12.56, 8.44, 7.9, 7.52, 8.3, 9.33, 9.81, 9.39, 7.15, 6.66, 3.97, 4.4, 4.73, 4.75, 3.48, 2.53, 2.53, 3.14, 3.35, 3.07, 3.07, 3.6, 3.6, 8.29, 8.55, 8.55, 8.55, 8.93, 8.93, 8.65, 8.29, 8.08, 8.08, 8.65, 8.94, 9.3, 9.86, 10.23, 10.51, 10.59, 9.72, 9.17, 9.82, 11.06, 11.38, 10.77, 11.08, 12.01, 13.19, 13.15, 13.09, 13.09, 13.58, 13.76, 14.4, 14.82, 14.82, 14.67, 14.51, 13.31, 9.76, 7.35, 6.9, 7.87, 8.87, 8.94, 8.49, 5.79, 3.2, 4.24, 4.02, 3.58, 3.58, 3.39, 2.23, 1.19, 1.3, 1.14, 2.32, 1.41, 2.4, 4.47, 3.16, 1.26, 1.86, 2.6, 3.58, 2.68, 0.71, -0.0, -0.7, -0.0, -0.0, 0.96, 5.46, 8.93, 8.67, 5.43, 5.52, 6.53, 6.36, 6.36, 7.09, 7.68, 8.91, 8.91, 8.01, 7.56, 6.07, 4.73, 4.0, 4.66, 4.41, 3.49, 3.07, 3.07, 3.45, 2.79, 2.79, 3.45, 3.45, 8.08, 8.08, 8.55, 8.55, 8.93, 8.93, 8.65, 8.29, 8.08, 8.08, 8.65, 8.94, 9.3, 9.86, 9.86, 10.51, 10.51, 10.23, 10.06, 10.99, 11.63, 11.63, 10.75, 10.17, 11.7, 13.19, 14.3, 13.86, 13.58, 13.48, 13.36, 13.36, 13.62, 13.76, 13.99, 14.32, 13.31, 9.63, 6.7, 6.1, 7.26, 7.98, 8.47, 8.05, 6.16, 3.88, 5.26, 4.92, 3.58, 3.58, 2.84, 1.41, 1.19, 1.3, 1.3, 1.14, -0.0, 0.7, 2.99, 3.79, 2.5, 2.6, 3.13, 2.68, 1.58, -0.0, -0.0, -0.0, -0.65, -1.2, -0.8, 0.8, 5.32, 3.58, 0.0, 0.0, 0.69, 2.9, 4.31, 4.73, 5.39, 6.68, 7.47, 7.56, 7.15, 6.71, 4.92, 3.97, 4.0, 4.12, 3.78, 3.14, 2.53, 2.53, 2.53, 3.14, 3.6, 3.6, 8.08, 8.08, 8.55, 8.55, 8.93, 8.93, 8.65, 8.65, 8.29, 8.29, 8.65, 8.94, 9.3, 9.86, 10.23, 10.41, 10.51, 10.51, 10.23, 11.23, 12.45, 12.45, 11.28, 10.4, 11.03, 12.27, 13.73, 14.23, 14.13, 13.9, 13.62, 13.48, 13.08, 13.31, 13.62, 14.03, 13.32, 10.21, 6.56, 6.1, 6.51, 7.07, 7.15, 6.68, 5.57, 4.4, 6.14, 5.36, 4.02, 2.84, 2.73, 2.73, 1.19, 1.19, 1.19, 1.3, -0.0, -0.0, 1.6, 3.79, 5.34, 3.51, 2.68, 1.6, -0.0, -0.0, -0.0, -0.0, -0.0, -0.65, -0.63, 4.15, 8.46, 7.6, 5.81, 2.4, 1.26, 1.08, 2.12, 3.51, 4.12, 5.52, 6.01, 6.96, 7.35, 6.36, 5.16, 4.02, 3.07, 2.73, 4.43, 3.43, 3.15, 2.84, 2.79, 3.6, 3.82, 3.82, 8.08, 8.08, 8.37, 8.55, 8.55, 8.55, 8.65, 8.65, 8.65, 8.65, 8.65, 9.21, 9.3, 9.86, 10.23, 10.41, 10.79, 10.51, 10.51, 11.16, 11.8, 12.45, 11.87, 10.94, 10.94, 11.92, 13.66, 14.23, 14.68, 14.4, 14.15, 13.99, 13.82, 13.62, 13.62, 14.23, 13.32, 11.12, 8.0, 6.6, 6.36, 6.61, 6.26, 6.23, 5.57, 5.09, 5.24, 4.8, 3.7, 3.35, 3.43, 3.79, 2.73, 2.73, 1.55, 1.41, -0.0, -0.0, -0.0, 2.8, 5.51, 5.77, 2.24, -0.0, -0.79, -0.0, -0.0, -0.0, -0.0, -0.0, 1.86, 4.84, 9.77, 11.4, 12.56, 12.29, 10.53, 6.66, 4.29, 2.2, 3.44, 4.12, 5.46, 6.28, 6.06, 5.46, 4.73, 4.02, 2.53, 1.94, 3.0, 4.22, 4.71, 4.46, 4.09, 3.6, 3.87, 3.87, 8.37, 8.37, 8.37, 8.55, 8.55, 8.55, 8.93, 8.65, 8.65, 8.65, 8.65, 9.21, 9.3, 9.86, 9.86, 10.41, 10.79, 10.79, 10.51, 11.44, 11.72, 12.37, 12.09, 11.52, 11.28, 11.87, 13.01, 13.94, 14.51, 14.95, 14.82, 14.67, 14.51, 14.32, 14.53, 14.53, 14.23, 12.53, 9.71, 8.1, 7.51, 6.94, 6.26, 6.23, 6.04, 6.04, 6.04, 5.88, 5.81, 4.9, 4.55, 4.0, 4.8, 2.73, 2.73, 2.48, 1.8, 1.2, -0.0, 1.34, 3.58, 7.08, 3.95, 0.57, -0.0, -0.0, -0.0, -0.0, 0.61, 0.71, 1.79, 3.2, 8.01, 11.96, 13.07, 12.72, 13.23, 12.25, 4.92, 1.94, 2.35, 3.46, 4.8, 5.46, 4.67, 4.81, 4.73, 3.82, 2.79, 1.94, 2.48, 4.94, 6.01, 5.95, 5.2, 4.24, 4.3, 4.3, 8.37, 8.37, 8.37, 8.37, 8.55, 8.55, 8.93, 8.93, 8.65, 8.65, 8.65, 9.21, 9.3, 9.5, 9.86, 10.41, 10.79, 10.79, 10.7, 11.07, 11.99, 12.27, 12.0, 11.87, 11.58, 11.87, 12.65, 13.21, 14.13, 14.4, 14.4, 14.03, 14.43, 14.67, 15.02, 15.02, 15.23, 14.03, 12.83, 10.91, 9.51, 8.06, 7.13, 6.23, 6.16, 6.94, 7.4, 7.4, 6.94, 6.04, 5.31, 4.9, 4.6, 3.2, 1.26, 1.26, 3.2, 2.8, 0.6, 0.45, 1.79, 4.47, 6.26, 2.23, -0.0, -0.0, -0.0, -0.0, 0.8, 1.7, 2.24, 3.32, 6.07, 7.6, 8.82, 9.9, 10.87, 10.88, 7.71, 2.53, 0.71, 2.21, 4.23, 4.12, 3.33, 4.07, 3.97, 3.07, 2.79, 2.79, 3.14, 4.52, 6.64, 6.94, 6.13, 5.2, 4.73, 4.73, 8.0, 8.0, 8.37, 8.37, 8.55, 8.55, 8.55, 8.93, 8.65, 8.65, 8.65, 9.21, 9.58, 9.5, 9.86, 10.41, 10.79, 10.96, 10.7, 11.07, 11.99, 12.54, 12.27, 11.8, 11.87, 12.16, 13.01, 13.21, 13.58, 13.48, 13.48, 13.9, 14.29, 14.29, 14.67, 14.67, 15.02, 14.32, 13.53, 11.92, 10.21, 8.91, 7.07, 7.15, 7.52, 8.33, 9.32, 8.42, 7.97, 6.51, 5.4, 4.9, 4.11, 3.39, 2.17, 1.34, 3.13, 2.8, 0.6, -0.0, 1.34, 3.51, 6.07, 2.4, -0.0, -0.0, 0.61, 0.8, 0.89, 1.7, 2.68, 3.51, 4.93, 3.45, 3.53, 7.15, 9.39, 8.91, 7.45, 3.58, 1.27, 1.12, 2.25, 2.69, 3.4, 3.15, 2.68, 2.5, 3.14, 4.4, 3.82, 4.41, 6.36, 7.33, 7.33, 6.11, 5.32, 5.32, 8.0, 8.0, 8.0, 8.37, 8.55, 8.55, 8.55, 8.93, 8.65, 8.65, 8.65, 9.21, 9.21, 9.5, 9.86, 10.41, 10.41, 10.79, 10.96, 11.07, 11.99, 12.54, 12.54, 11.72, 11.44, 11.8, 12.45, 13.01, 13.21, 13.48, 13.48, 13.75, 13.9, 13.9, 14.15, 14.67, 14.51, 14.22, 13.31, 12.11, 10.71, 8.79, 7.4, 7.11, 7.15, 8.33, 9.77, 9.83, 6.71, 6.16, 4.11, 3.35, 2.5, 1.86, 1.34, 1.34, 2.24, 1.58, -0.0, -0.0, 1.2, 3.6, 4.24, 1.58, -0.0, -0.0, 1.47, 1.16, 0.89, 0.6, 1.86, 3.97, 6.66, 5.43, 5.59, 7.59, 8.3, 7.71, 6.71, 7.12, 3.98, 2.84, 2.29, 4.1, 3.72, 4.41, 3.51, 2.91, 3.97, 4.43, 3.97, 3.97, 4.88, 7.12, 7.48, 6.58, 5.78, 5.78, 8.0, 8.0, 8.0, 8.0, 8.37, 8.55, 8.55, 8.93, 8.65, 8.65, 8.65, 9.21, 9.21, 9.76, 9.86, 10.41, 10.41, 10.79, 10.96, 11.07, 11.62, 12.54, 12.7, 12.16, 11.99, 11.72, 11.8, 12.45, 13.01, 13.48, 13.48, 13.36, 13.36, 13.62, 13.76, 14.15, 13.99, 14.22, 13.31, 12.11, 10.71, 9.21, 7.74, 6.16, 5.34, 7.15, 11.15, 9.23, 3.98, 0.63, -0.0, -0.0, -0.0, -0.0, -0.0, 0.45, 0.63, 0.6, -0.0, 0.45, 1.86, 3.07, 2.6, -0.0, -0.0, -0.53, -0.0, 1.66, 1.88, 1.79, 1.58, 2.91, 6.71, 8.49, 8.63, 8.93, 8.53, 7.33, 6.54, 8.05, 8.49, 8.03, 6.79, 6.79, 8.05, 7.01, 6.85, 6.55, 5.81, 5.36, 4.92, 3.97, 5.32, 6.66, 7.12, 6.67, 6.22, 6.22, 8.0, 8.0, 8.0, 8.0, 8.37, 8.55, 8.55, 8.55, 8.93, 8.65, 8.65, 8.84, 9.21, 9.58, 9.86, 10.04, 10.41, 10.79, 10.96, 11.34, 11.62, 12.16, 12.7, 12.54, 12.16, 11.99, 11.72, 12.0, 12.56, 13.11, 13.36, 13.36, 13.36, 13.62, 13.62, 13.87, 13.48, 13.71, 12.79, 11.82, 10.21, 9.21, 7.58, 6.04, 5.57, 7.89, 11.09, 8.3, 3.07, 0.89, 0.89, 1.2, -0.0, -0.57, -0.0, -0.0, -0.0, -0.0, -0.0, -0.0, 1.2, 2.17, 1.7, 0.6, -0.0, -0.6, -1.26, -0.0, 2.86, 3.51, 2.6, 1.7, 3.07, 9.11, 12.07, 11.87, 10.29, 8.3, 7.07, 8.91, 10.65, 10.73, 9.83, 9.32, 9.57, 10.66, 11.56, 9.89, 8.38, 6.67, 5.32, 4.43, 4.02, 5.78, 7.12, 7.12, 6.58, 6.58, 8.0, 8.0, 8.0, 8.0, 8.0, 8.55, 8.55, 8.55, 8.93, 8.65, 8.65, 8.84, 9.21, 9.58, 9.76, 9.86, 10.41, 10.41, 10.96, 11.34, 11.88, 12.16, 12.54, 12.95, 12.42, 11.99, 11.62, 11.16, 12.16, 12.27, 13.36, 13.75, 13.75, 13.36, 13.62, 13.62, 13.48, 13.31, 12.51, 11.41, 10.21, 9.01, 7.58, 6.79, 7.09, 8.91, 10.21, 8.48, 5.34, 4.47, 4.47, 4.02, 2.68, 2.12, 1.26, -0.0, -0.0, -0.0, -0.0, 0.6, 0.63, 1.2, 1.26, 1.6, 0.95, -0.0, -0.45, 0.0, 1.79, 4.02, 3.58, 1.34, 0.63, 4.82, 13.77, 14.73, 10.15, 6.06, 5.43, 7.73, 10.98, 11.62, 10.19, 10.81, 11.56, 12.94, 13.41, 13.41, 10.93, 8.67, 6.58, 5.81, 4.02, 5.36, 7.12, 7.57, 7.12, 7.12, 8.0, 8.0, 8.0, 8.0, 8.0, 8.37, 8.55, 8.55, 8.93, 8.65, 8.65, 8.84, 9.21, 9.21, 9.76, 10.13, 10.41, 10.41, 10.79, 10.96, 11.5, 11.88, 12.42, 12.42, 12.42, 12.42, 11.62, 10.8, 10.59, 12.52, 12.0, 12.93, 13.48, 13.48, 13.36, 13.62, 13.23, 12.95, 12.28, 11.31, 9.71, 8.51, 8.0, 7.09, 7.58, 8.79, 9.86, 9.23, 8.47, 8.03, 8.03, 7.13, 5.78, 4.47, 3.58, 2.63, 2.4, 0.8, 0.57, 0.71, 1.2, 1.26, 2.8, 1.2, 0.95, 0.63, 0.45, 0.0, 1.58, 3.51, 4.02, 2.4, 1.2, 3.39, 12.87, 16.52, 10.62, 2.8, 2.4, 4.88, 9.39, 11.15, 11.45, 11.89, 13.21, 14.11, 14.57, 14.11, 11.86, 8.82, 7.89, 6.71, 6.26, 5.36, 6.26, 7.6, 7.6, 7.6, 8.0, 8.0, 8.0, 8.0, 8.0, 8.37, 8.55, 8.55, 8.93, 8.93, 8.84, 8.84, 9.21, 9.21, 9.76, 10.13, 10.3, 10.41, 10.41, 10.96, 11.5, 11.88, 12.42, 12.42, 12.42, 12.42, 12.16, 11.16, 10.88, 11.8, 12.0, 12.37, 12.93, 12.93, 13.11, 13.36, 13.23, 12.95, 11.88, 10.91, 9.71, 8.72, 8.0, 8.0, 8.17, 8.64, 9.23, 9.23, 9.23, 9.68, 9.68, 9.23, 8.33, 7.07, 5.78, 4.92, 3.98, 3.53, 1.86, 1.9, 1.13, 1.4, 1.9, 1.58, 0.63, 0.89, 0.89, 0.63, 1.26, 2.54, 3.13, 2.8, 3.04, 6.79, 12.14, 16.02, 13.84, 8.63, 6.85, 8.84, 11.15, 12.07, 12.96, 13.41, 13.41, 13.84, 14.26, 13.75, 11.53, 8.84, 6.67, 8.05, 7.57, 7.01, 6.58, 7.6, 8.05, 8.05, 8.0, 8.0, 8.0, 8.0, 8.0, 8.0, 8.55, 8.55, 8.55, 8.93, 8.84, 8.84, 9.21, 9.21, 9.21, 10.13, 10.3, 10.41, 10.41, 10.96, 11.34, 11.88, 12.03, 12.42, 12.42, 12.56, 12.16, 11.72, 11.44, 11.44, 12.0, 12.37, 12.37, 12.37, 12.82, 12.82, 12.7, 12.42, 11.36, 10.4, 9.51, 9.21, 8.91, 8.48, 8.21, 8.77, 9.23, 9.23, 9.14, 9.57, 10.01, 10.01, 9.11, 8.21, 7.4, 6.23, 5.36, 4.44, 3.98, 2.21, 1.4, 1.4, 1.9, 1.58, 2.24, 2.24, 0.89, 1.2, 1.26, 1.7, 2.24, 2.6, 4.92, 9.81, 12.3, 13.39, 13.67, 13.23, 13.75, 14.57, 14.3, 13.79, 12.81, 12.0, 11.62, 12.07, 12.5, 10.7, 8.91, 8.49, 7.6, 6.26, 8.46, 7.76, 6.85, 6.64, 7.92, 7.92, 8.0, 8.0, 8.0, 8.0, 8.0, 8.0, 8.55, 8.55, 8.55, 8.93, 8.84, 8.84, 9.21, 9.21, 9.21, 9.76, 10.13, 10.68, 10.41, 10.96, 10.96, 11.5, 11.88, 12.03, 12.42, 12.42, 12.16, 11.9, 11.72, 11.72, 12.27, 12.0, 12.27, 12.27, 11.9, 12.16, 11.78, 11.75, 10.68, 10.21, 9.92, 9.7, 8.96, 8.64, 8.33, 8.77, 9.23, 9.68, 9.57, 9.86, 9.86, 9.86, 9.43, 8.48, 7.69, 6.61, 5.81, 4.92, 4.44, 3.07, 2.21, 1.2, 1.58, 0.63, 1.2, 2.68, 1.2, 1.34, 1.34, 1.7, 1.6, 2.24, 4.02, 10.18, 12.52, 10.73, 10.7, 12.14, 14.87, 16.48, 16.09, 13.34, 10.08, 7.92, 6.71, 6.71, 7.15, 6.26, 7.15, 8.05, 7.57, 6.67, 7.89, 7.71, 7.06, 7.06, 7.06, 7.06, 7.8, 7.8, 8.0, 8.0, 8.0, 8.0, 8.37, 8.55, 8.55, 8.93, 8.93, 8.84, 9.21, 9.21, 9.21, 9.76, 10.13, 10.3, 10.41, 10.41, 10.96, 11.5, 11.88, 12.03, 12.03, 12.28, 12.42, 12.27, 11.72, 11.72, 11.72, 12.0, 12.27, 12.27, 11.99, 11.62, 10.96, 10.3, 9.88, 9.71, 9.51, 9.7, 8.48, 8.36, 7.97, 8.87, 9.57, 10.04, 9.91, 10.34, 10.18, 10.18, 9.7, 8.48, 7.51, 6.47, 5.34, 4.92, 3.98, 3.32, 2.5, 1.9, 1.58, 0.63, 1.2, 2.68, 1.2, 1.79, 1.79, 1.7, 1.26, 1.2, 2.6, 9.33, 12.77, 11.18, 7.89, 9.72, 14.11, 16.4, 16.03, 12.5, 8.94, 5.81, 4.02, 4.47, 6.26, 5.36, 6.22, 7.01, 7.01, 6.11, 5.2, 6.79, 6.28, 6.13, 6.4, 7.2, 7.8, 7.8, 8.0, 8.0, 8.0, 8.0, 8.37, 8.55, 8.55, 8.93, 8.93, 8.84, 9.21, 9.21, 9.21, 9.76, 9.76, 10.3, 10.68, 10.41, 10.96, 10.96, 11.5, 11.88, 12.03, 12.28, 12.42, 12.16, 12.27, 11.72, 11.72, 12.27, 12.0, 12.27, 11.72, 11.24, 10.41, 9.63, 8.96, 9.2, 9.42, 8.6, 7.51, 7.42, 7.97, 9.77, 10.34, 10.6, 10.42, 10.42, 10.42, 10.42, 9.51, 8.3, 7.09, 6.04, 5.33, 4.92, 3.98, 3.39, 2.8, 1.86, 1.58, 0.89, 0.89, 2.68, 2.68, 1.7, 2.17, 1.86, 1.26, 0.0, 1.34, 6.98, 13.53, 12.77, 7.56, 8.24, 12.25, 14.62, 14.03, 12.05, 10.73, 8.49, 6.26, 5.36, 5.36, 5.32, 5.32, 6.66, 5.78, 5.32, 4.88, 6.51, 5.86, 5.86, 6.36, 6.4, 7.8, 7.8, 7.8, 8.0, 8.0, 8.0, 8.0, 8.55, 8.55, 8.93, 8.93, 8.84, 9.21, 9.21, 9.21, 9.76, 9.76, 9.76, 10.3, 10.68, 10.58, 10.96, 11.5, 11.5, 11.88, 12.28, 12.28, 12.42, 12.16, 11.72, 11.62, 11.72, 12.27, 12.27, 11.72, 11.07, 10.41, 9.48, 8.96, 8.68, 8.68, 8.0, 6.6, 5.6, 7.47, 10.34, 11.21, 10.91, 10.4, 10.4, 10.4, 10.21, 9.2, 8.22, 6.6, 5.81, 5.24, 4.47, 4.02, 3.53, 2.49, 2.12, 1.79, 2.24, 2.24, 2.8, 1.7, 1.86, 1.86, 1.86, 1.7, 0.63, 1.2, 3.13, 10.28, 12.47, 11.75, 8.49, 8.63, 9.14, 8.93, 8.97, 9.74, 8.91, 7.15, 5.81, 6.26, 6.26, 5.36, 7.15, 5.81, 5.81, 5.81, 8.01, 6.98, 6.55, 5.64, 6.36, 7.8, 7.8, 7.8, 8.0, 8.0, 8.0, 8.0, 8.55, 8.55, 8.55, 8.93, 9.1, 9.21, 9.21, 9.21, 9.21, 9.76, 9.76, 10.3, 10.68, 10.68, 10.96, 10.96, 11.5, 11.75, 11.75, 11.75, 12.28, 12.03, 12.16, 11.62, 11.62, 11.72, 12.27, 11.72, 11.07, 10.41, 9.21, 9.1, 8.82, 8.68, 7.48, 6.28, 5.75, 6.79, 10.28, 10.83, 10.3, 9.76, 10.02, 10.16, 9.88, 8.68, 7.71, 6.6, 5.81, 5.57, 4.47, 4.02, 3.58, 3.07, 2.24, 2.24, 2.68, 2.8, 3.2, 2.12, 3.72, 1.86, 1.86, 1.7, 1.7, 1.26, 2.23, 3.13, 9.4, 12.39, 12.14, 8.01, 3.2, 1.88, 2.79, 5.44, 7.57, 6.67, 5.81, 5.36, 6.26, 7.6, 8.05, 8.05, 8.05, 8.05, 9.81, 9.36, 8.01, 3.58, 3.58, 7.44, 7.44, 7.8, 7.8, 8.0, 8.0, 8.0, 8.55, 8.55, 8.55, 8.93, 9.1, 8.84, 9.21, 9.21, 9.21, 9.76, 9.76, 10.13, 10.3, 10.68, 10.83, 11.22, 11.75, 11.75, 11.75, 11.75, 11.75, 12.14, 11.88, 11.88, 11.62, 11.62, 11.9, 11.72, 10.8, 10.15, 9.76, 9.48, 8.96, 8.68, 7.48, 6.28, 6.28, 7.35, 9.1, 10.4, 8.96, 8.43, 8.43, 8.96, 9.2, 8.0, 7.31, 6.6, 6.1, 5.24, 4.44, 4.02, 3.58, 3.13, 2.68, 2.24, 3.13, 2.8, 3.39, 3.82, 3.82, 2.12, 2.17, 2.24, 2.12, 1.86, 1.9, 2.21, 3.95, 9.81, 13.05, 12.56, 7.47, 3.07, 3.13, 5.32, 7.57, 7.48, 6.66, 5.32, 7.12, 8.46, 9.36, 9.81, 9.74, 9.36, 9.72, 6.71, 1.88, 1.88, 1.88, 7.44, 7.44, 7.44, 7.8, 8.0, 8.0, 8.0, 8.37, 8.55, 8.55, 8.93, 8.93, 8.84, 9.21, 9.21, 9.21, 9.76, 9.76, 9.76, 10.3, 10.68, 10.68, 11.22, 11.22, 11.75, 11.75, 11.75, 11.75, 11.75, 11.75, 11.5, 11.5, 11.24, 11.62, 11.72, 10.8, 9.94, 9.3, 8.84, 8.72, 8.68, 7.6, 7.2, 6.8, 8.0, 9.01, 9.7, 8.79, 8.3, 8.0, 8.0, 8.0, 7.31, 6.51, 6.1, 6.1, 5.31, 4.77, 3.98, 4.02, 3.58, 2.68, 2.6, 3.2, 3.58, 3.58, 4.02, 3.82, 1.79, 1.79, 2.24, 2.17, 2.21, 2.53, 2.98, 3.9, 6.94, 11.18, 13.53, 13.35, 12.47, 12.25, 12.92, 11.99, 9.83, 7.92, 5.2, 6.36, 7.98, 9.4, 9.4, 9.4, 9.15, 8.01, 2.4, -0.0, -0.0, -0.0, 7.44, 7.44, 7.44, 7.44, 8.0, 8.0, 8.0, 8.0, 8.55, 8.55, 8.93, 8.93, 8.84, 9.21, 9.21, 9.21, 9.58, 9.76, 9.76, 10.3, 10.3, 10.68, 10.83, 11.22, 11.22, 11.75, 11.75, 11.75, 11.75, 11.75, 11.75, 11.75, 11.5, 11.5, 11.07, 10.51, 9.59, 8.94, 8.84, 9.1, 8.43, 8.15, 7.6, 7.48, 8.0, 8.6, 9.27, 9.39, 8.96, 8.72, 8.72, 7.81, 6.6, 5.6, 5.08, 5.08, 5.31, 4.6, 4.34, 3.98, 3.58, 3.13, 3.07, 3.07, 4.02, 4.02, 4.02, 2.12, 2.12, 1.7, 1.79, 2.4, 2.15, 2.79, 3.64, 3.64, 4.46, 8.46, 11.52, 12.29, 13.51, 15.78, 17.07, 15.54, 12.49, 10.26, 8.46, 6.36, 6.9, 6.9, 8.8, 5.86, 4.73, 2.12, -0.0, -0.0, -0.0, -0.0, 7.44, 7.44, 7.44, 7.44, 7.8, 8.0, 8.0, 8.0, 8.55, 8.55, 8.55, 8.93, 8.84, 9.21, 9.21, 9.21, 9.21, 9.76, 9.76, 9.76, 10.3, 10.68, 10.68, 11.22, 11.22, 11.36, 11.75, 11.75, 11.75, 11.75, 11.75, 11.36, 11.22, 10.96, 10.96, 10.41, 9.3, 8.94, 8.65, 8.93, 8.82, 8.68, 8.15, 8.4, 8.51, 9.01, 9.42, 9.7, 9.27, 9.21, 9.21, 8.72, 7.31, 6.1, 5.08, 4.4, 4.4, 4.4, 4.11, 3.87, 3.53, 3.07, 3.07, 3.07, 3.13, 4.02, 4.02, 1.79, 1.79, 2.24, 1.86, 2.21, 2.15, 2.79, 2.51, 2.53, 3.74, 6.66, 8.91, 9.08, 10.9, 15.09, 17.5, 16.4, 14.79, 13.64, 12.33, 10.26, 6.94, 6.52, 6.8, 3.32, 1.79, -0.0, -0.59, 0.59, 0.59, 0.59, 7.44, 7.44, 7.44, 7.44, 7.44, 8.0, 8.0, 8.0, 8.37, 8.55, 8.55, 8.93, 9.1, 9.21, 9.21, 9.21, 9.21, 9.76, 9.76, 9.76, 10.3, 10.3, 10.68, 10.83, 11.22, 11.22, 11.36, 11.75, 11.75, 11.75, 11.75, 11.36, 11.22, 10.83, 10.68, 10.13, 9.3, 8.94, 8.65, 8.65, 8.55, 8.43, 8.15, 8.28, 8.68, 9.01, 9.42, 9.51, 9.51, 9.51, 9.01, 8.6, 8.0, 7.2, 4.4, 3.88, 3.88, 3.88, 4.11, 3.39, 3.09, 3.07, 2.63, 2.63, 2.68, 4.02, 4.02, 3.82, 4.24, 2.4, 2.5, 1.88, 1.61, 1.88, 2.5, 2.91, 3.51, 6.26, 7.11, 5.69, 8.3, 13.75, 17.38, 16.65, 15.59, 14.53, 13.09, 10.71, 6.21, 1.9, 1.9, 1.86, 0.45, -0.0, -0.0, 1.61, 1.61, 1.61, 7.44, 7.44, 7.44, 7.44, 7.44, 8.0, 8.0, 8.0, 8.37, 8.55, 8.55, 8.93, 8.93, 8.84, 9.21, 9.21, 9.21, 9.21, 9.76, 9.76, 9.76, 10.3, 10.68, 10.83, 11.22, 11.22, 11.22, 11.75, 11.75, 11.75, 11.75, 11.75, 11.22, 10.83, 10.55, 9.63, 8.84, 8.65, 8.65, 8.65, 8.55, 8.43, 8.27, 8.68, 8.68, 8.8, 9.2, 9.42, 9.51, 9.51, 9.42, 9.01, 8.51, 7.48, 5.08, 3.88, 3.35, 3.35, 3.6, 3.39, 2.91, 2.63, 2.6, 2.17, 2.12, 3.58, 3.82, 4.24, 4.34, 2.12, 2.12, 1.49, 1.24, 1.9, 2.4, 2.91, 3.53, 4.47, 5.16, 5.43, 6.94, 10.68, 14.07, 15.25, 15.78, 14.27, 11.58, 8.38, 2.24, 0.63, 0.0, 0.0, 0.45, -0.0, 0.6, 1.86, 1.86, 1.86, 7.44, 7.44, 7.44, 7.44, 7.44, 7.8, 8.0, 8.0, 8.0, 8.55, 8.55, 8.93, 8.93, 8.84, 9.21, 9.21, 9.21, 9.21, 9.38, 9.76, 9.76, 10.3, 10.3, 10.68, 10.83, 11.22, 11.22, 11.22, 11.75, 11.75, 11.75, 11.36, 11.22, 11.08, 10.16, 9.35, 8.55, 8.55, 8.29, 8.65, 8.55, 8.55, 8.27, 8.43, 8.68, 8.8, 9.2, 9.2, 9.3, 9.2, 9.2, 9.01, 8.51, 8.0, 5.75, 4.55, 3.88, 3.72, 3.6, 3.39, 2.91, 2.49, 2.4, 2.4, 1.86, 1.6, 2.54, 3.04, 3.13, 2.68, 2.68, 3.04, 1.9, 1.9, 2.5, 2.8, 3.07, 3.13, 3.51, 4.4, 5.86, 7.89, 9.56, 12.52, 14.75, 14.62, 7.92, 3.97, 2.15, -0.0, -0.57, -1.7, -1.7, -0.45, 0.45, 1.79, 1.79, 1.79, 7.44, 7.44, 7.44, 7.44, 7.44, 7.44, 8.0, 8.0, 8.0, 8.37, 8.55, 8.55, 8.93, 8.84, 9.21, 9.21, 9.21, 9.21, 9.21, 9.76, 9.76, 10.3, 10.3, 10.68, 10.83, 10.83, 11.22, 11.22, 11.22, 11.36, 11.36, 11.36, 11.22, 11.08, 10.16, 9.35, 8.43, 7.9, 8.0, 8.0, 8.0, 8.0, 7.9, 7.9, 8.68, 8.68, 9.2, 9.2, 9.2, 9.2, 9.2, 8.68, 8.28, 7.23, 6.41, 5.75, 4.93, 4.27, 3.6, 3.39, 2.91, 2.91, 2.15, 2.15, 2.5, 2.21, 1.58, 1.6, 1.79, 2.68, 3.13, 3.58, 3.07, 2.86, 2.5, 2.8, 2.6, 2.68, 2.68, 3.53, 4.73, 5.34, 6.44, 10.15, 14.92, 12.79, 8.91, 3.53, 0.57, -0.0, -0.0, -0.65, -0.95, 0.0, 0.8, 1.7, 1.7, 1.7, 7.44, 7.21, 7.44, 7.44, 7.44, 7.44, 8.0, 8.0, 8.0, 8.37, 8.55, 8.55, 8.93, 8.93, 8.84, 9.21, 9.21, 9.21, 9.21, 9.38, 9.76, 9.76, 10.3, 10.3, 10.68, 10.83, 10.83, 11.22, 11.22, 11.22, 11.36, 11.22, 10.83, 10.55, 10.16, 9.35, 8.43, 7.76, 7.61, 7.35, 7.35, 7.35, 7.35, 7.76, 8.15, 8.28, 8.68, 9.2, 9.2, 9.2, 9.2, 8.68, 8.28, 7.23, 6.7, 6.15, 5.29, 4.93, 4.27, 3.6, 3.2, 3.07, 2.68, 2.79, 2.79, 2.53, 1.9, 0.8, 1.24, 1.9, 2.4, 2.63, 3.51, 3.32, 2.5, 2.5, 2.4, 2.24, 2.24, 3.13, 3.53, 4.24, 5.16, 8.82, 16.08, 14.3, 9.83, 3.07, -0.0, -0.57, 0.53, 0.54, 0.6, 0.89, 1.2, 0.45, 0.45, 0.45, 7.21, 7.21, 7.44, 7.44, 7.44, 7.44, 7.8, 8.0, 8.0, 8.37, 8.55, 8.55, 8.93, 8.93, 9.1, 9.1, 9.48, 9.21, 9.21, 9.21, 9.76, 9.76, 10.3, 10.3, 10.68, 10.68, 10.83, 10.83, 11.22, 11.22, 11.22, 11.22, 10.83, 10.55, 10.02, 9.35, 8.43, 8.15, 7.61, 7.23, 7.07, 7.07, 7.23, 7.61, 7.61, 7.76, 8.15, 8.68, 8.8, 9.2, 9.2, 8.68, 8.28, 7.23, 7.07, 6.51, 5.59, 4.94, 4.55, 4.27, 3.72, 3.35, 3.14, 3.14, 2.84, 3.16, 2.21, 1.74, 0.65, 0.65, 0.65, 1.88, 2.53, 3.49, 2.5, 2.21, 2.23, 1.7, 2.24, 2.68, 3.13, 3.51, 4.87, 14.75, 16.54, 14.75, 9.83, 2.63, 0.45, -0.45, 0.45, 1.2, 1.34, 1.2, 0.45, -1.0, -1.0, -1.0, 7.21, 7.21, 7.21, 7.44, 7.44, 7.44, 7.44, 8.0, 8.0, 8.0, 8.37, 8.55, 8.55, 8.93, 8.93, 9.1, 9.1, 9.48, 9.21, 9.21, 9.76, 9.76, 10.13, 10.3, 10.3, 10.68, 10.68, 10.68, 10.83, 11.22, 11.22, 10.83, 10.68, 10.55, 9.63, 9.35, 8.43, 8.15, 7.61, 7.23, 7.23, 7.07, 7.23, 7.61, 7.61, 7.61, 7.76, 8.15, 8.68, 8.68, 8.68, 8.68, 7.76, 7.23, 7.07, 6.23, 5.88, 5.59, 4.71, 4.29, 4.0, 3.43, 3.43, 3.43, 3.43, 3.48, 3.79, 3.48, 1.49, 1.24, 1.16, 1.49, 2.0, 2.15, 1.2, 1.2, 1.24, 1.26, 2.12, 2.17, 2.6, 2.68, 9.36, 14.22, 15.96, 13.69, 6.67, 0.89, -0.6, -0.57, 0.0, 0.6, 1.26, 0.45, -1.24, -2.07, -2.07, -2.07, 7.21, 7.21, 7.21, 7.21, 7.44, 7.44, 7.44, 8.0, 8.0, 8.0, 8.37, 8.55, 8.55, 8.93, 8.93, 9.1, 9.1, 9.48, 9.48, 9.21, 9.38, 9.76, 9.76, 10.3, 10.3, 10.3, 10.3, 10.68, 10.68, 10.83, 10.83, 10.83, 10.3, 10.16, 9.63, 9.35, 8.43, 7.9, 7.76, 7.61, 7.61, 7.61, 7.61, 7.61, 7.61, 7.76, 7.76, 8.15, 8.68, 8.68, 8.68, 8.28, 7.76, 7.23, 6.79, 6.79, 6.23, 5.65, 5.01, 4.71, 4.07, 4.07, 3.73, 3.73, 3.73, 4.07, 3.79, 4.07, 2.23, 1.9, 2.21, 1.88, 1.88, 1.9, 1.26, 1.24, 0.61, 0.53, 1.2, 1.58, 1.86, 1.86, 7.11, 11.23, 12.87, 10.75, 3.07, -1.2, -2.15, -1.16, 0.0, 0.57, 0.0, -1.24, -2.51, -2.73, -2.73, -2.73, 6.87, 6.87, 6.87, 7.21, 7.44, 7.44, 7.44, 8.0, 8.0, 8.0, 8.37, 8.55, 8.55, 8.55, 8.93, 8.93, 9.1, 9.1, 9.48, 9.48, 9.21, 9.76, 9.76, 10.13, 10.3, 10.3, 10.3, 10.3, 10.68, 10.83, 10.83, 10.83, 10.3, 10.02, 9.63, 8.96, 8.43, 7.9, 8.15, 7.76, 7.61, 7.61, 7.61, 7.76, 7.76, 7.76, 8.15, 8.15, 8.68, 8.68, 8.28, 8.15, 7.87, 7.23, 6.79, 6.52, 6.28, 6.28, 5.65, 5.01, 4.71, 4.11, 4.11, 4.07, 4.07, 4.07, 4.07, 4.07, 3.48, 1.9, 2.23, 1.86, 1.86, 1.7, 1.79, 1.79, 1.24, 0.7, 0.7, 0.61, 0.65, 1.9, 3.53, 8.01, 10.49, 10.49, 3.97, -1.2, -2.5, -1.2, 0.0, -0.45, -1.88, -2.79, -2.73, -2.88, -2.88, -2.88, 6.87, 6.87, 6.87, 6.87, 7.44, 7.44, 7.44, 7.8, 8.0, 8.0, 8.0, 8.37, 8.55, 8.55, 8.93, 8.93, 9.1, 9.1, 9.1, 9.48, 9.21, 9.38, 9.76, 9.76, 10.13, 10.3, 10.3, 10.3, 10.3, 10.68, 10.83, 10.68, 10.3, 10.02, 9.1, 8.96, 8.43, 8.27, 7.9, 8.15, 8.15, 8.15, 8.15, 8.15, 8.15, 8.15, 8.15, 8.15, 8.68, 8.68, 8.15, 7.87, 7.48, 7.48, 7.07, 6.87, 6.59, 6.32, 6.28, 5.65, 5.06, 4.43, 4.43, 4.11, 4.65, 4.29, 4.65, 4.07, 4.07, 1.9, 1.86, 1.86, 1.86, 1.2, 1.34, 2.12, 2.23, 0.7, 0.73, 0.0, 0.61, 1.16, 2.53, 6.07, 9.83, 11.15, 8.47, 2.24, -0.45, -0.89, -1.79, -3.16, -4.22, -3.11, -2.88, -3.2, -3.2, -3.2, 6.87, 6.87, 6.87, 6.87, 7.21, 7.44, 7.44, 7.44, 8.0, 8.0, 8.0, 8.37, 8.55, 8.55, 8.55, 8.93, 8.93, 9.1, 9.1, 9.48, 9.21, 9.21, 9.76, 9.76, 9.76, 10.13, 10.13, 10.3, 10.3, 10.68, 10.68, 10.68, 10.3, 9.63, 9.1, 8.96, 8.43, 8.27, 7.9, 7.9, 7.9, 7.9, 7.9, 7.9, 8.15, 8.15, 8.15, 8.27, 8.43, 8.43, 8.15, 7.61, 7.48, 6.95, 6.7, 6.79, 6.59, 6.92, 6.32, 6.01, 5.69, 5.06, 4.74, 4.43, 4.37, 4.65, 4.65, 4.07, 3.73, 2.21, 1.9, 1.49, 1.24, 0.6, 0.57, 1.49, 2.21, 2.15, 1.41, 0.0, 0.0, 0.61, 2.07, 5.43, 9.58, 11.6, 11.18, 8.05, 3.13, -0.0, -1.61, -4.07, -3.97, -3.2, -3.09, -3.09, -3.09, -3.09, 6.87, 6.87, 6.87, 6.87, 6.87, 7.44, 7.44, 7.44, 8.0, 8.0, 8.0, 8.37, 8.55, 8.55, 8.55, 8.93, 8.93, 9.1, 9.1, 9.21, 9.21, 9.21, 9.76, 9.76, 9.76, 9.76, 9.76, 10.13, 10.3, 10.3, 10.68, 10.3, 9.76, 9.63, 9.1, 8.82, 8.43, 8.43, 7.9, 7.9, 7.9, 7.9, 7.9, 7.9, 7.9, 7.9, 7.9, 8.27, 8.43, 8.43, 8.68, 7.61, 7.48, 6.95, 6.95, 6.79, 6.87, 6.92, 6.64, 6.32, 6.01, 5.69, 5.37, 4.74, 4.43, 4.37, 4.65, 4.29, 4.07, 3.48, 2.86, 1.49, 0.99, 1.26, 1.24, 1.2, 1.9, 1.9, 1.86, 0.65, 1.2, 1.4, 2.84, 5.69, 9.83, 12.42, 12.49, 10.73, 8.49, 3.97, 1.61, -0.61, -2.04, -3.15, -3.06, -2.9, -2.9, -2.9, 6.87, 6.87, 6.87, 6.87, 6.87, 7.44, 7.44, 7.44, 7.8, 8.0, 8.0, 8.0, 8.37, 8.55, 8.55, 8.93, 8.93, 9.1, 8.84, 9.21, 9.21, 9.21, 9.58, 9.76, 9.76, 9.76, 9.76, 9.76, 10.3, 10.3, 10.3, 10.3, 9.76, 9.48, 9.1, 8.82, 8.43, 8.43, 8.27, 7.9, 7.9, 7.9, 7.9, 7.9, 7.9, 7.9, 7.9, 8.27, 8.43, 8.43, 8.68, 7.61, 7.23, 6.95, 6.95, 6.7, 6.87, 6.59, 6.64, 6.32, 6.32, 6.01, 5.69, 5.37, 5.01, 4.43, 4.37, 4.65, 4.07, 3.48, 2.86, 1.58, 1.26, 3.2, 1.2, 1.26, 1.26, 1.7, 1.79, 2.12, 1.9, 2.53, 3.49, 6.07, 9.83, 12.3, 12.49, 11.62, 10.26, 8.91, 6.58, 3.14, 0.63, -1.44, -2.63, -2.69, -2.69, -2.69, 6.87, 6.87, 6.87, 6.87, 6.87, 7.44, 7.44, 7.44, 7.8, 8.0, 8.0, 8.0, 8.37, 8.55, 8.55, 8.55, 8.93, 8.93, 8.84, 9.21, 9.21, 9.21, 9.21, 9.58, 9.76, 9.76, 9.76, 9.76, 10.13, 10.3, 10.3, 10.13, 10.02, 9.1, 8.72, 8.82, 8.82, 8.43, 8.27, 8.27, 7.9, 7.9, 7.9, 7.9, 7.9, 7.9, 8.27, 8.27, 8.43, 8.43, 8.15, 7.61, 7.23, 7.07, 6.95, 6.7, 6.79, 6.87, 6.59, 6.32, 6.32, 6.01, 6.01, 5.69, 5.06, 5.01, 4.71, 4.37, 4.07, 3.48, 3.16, 2.79, 2.5, 3.13, 0.89, 0.63, 0.63, 1.2, 1.34, 1.7, 2.15, 2.53, 4.09, 6.07, 9.08, 11.4, 12.05, 11.62, 11.15, 9.81, 8.82, 6.79, 4.11, 0.67, -1.44, -1.58, -1.58, -1.58, 6.87, 6.87, 6.87, 6.87, 6.87, 7.44, 7.44, 7.44, 7.8, 8.0, 8.0, 8.0, 8.37, 8.55, 8.55, 8.55, 8.93, 8.93, 8.84, 9.21, 9.21, 9.21, 9.21, 9.58, 9.76, 9.76, 9.76, 9.76, 10.13, 10.3, 10.3, 10.13, 10.02, 9.1, 8.72, 8.82, 8.82, 8.43, 8.27, 8.27, 7.9, 7.9, 7.9, 7.9, 7.9, 7.9, 8.27, 8.27, 8.43, 8.43, 8.15, 7.61, 7.23, 7.07, 6.95, 6.7, 6.79, 6.87, 6.59, 6.32, 6.32, 6.01, 6.01, 5.69, 5.06, 5.01, 4.71, 4.37, 4.07, 3.48, 3.16, 2.79, 2.5, 3.13, 0.89, 0.63, 1.2, 1.2, 1.34, 1.7, 2.15, 2.53, 4.09, 6.07, 8.0, 10.02, 11.6, 11.62, 11.6, 11.06, 10.02, 7.89, 5.46, 2.11, -0.0, -0.78, -0.78, -0.78]}, {"header": {"dx": 0.06612293990616946, "dy": 0.0552356325346848, "nx": 98, "ny": 59, "la1": 35.046912555036876, "la2": 31.78801023549047, "lo1": -121.43107172385933, "lo2": -114.95102361305473, "refTime": "2026040903", "parameterCategory": 1, "parameterNumber": 3}, "data": [-6.33, -6.33, -6.33, -6.33, -6.71, -6.97, -6.97, -7.33, -7.61, -7.33, -6.98, -5.72, -4.95, -1.33, -0.73, 0.0, 0.0, 0.65, 0.71, 0.0, 0.0, 0.76, 0.81, 0.0, 0.0, 0.0, 0.0, 0.0, -1.7, -2.24, -2.12, -1.7, -1.79, -1.79, -1.7, -1.24, -1.2, -1.2, -1.2, -1.88, -1.84, -2.84, -3.22, -5.15, -6.17, -7.12, -8.61, -9.17, -9.31, -6.31, 0.0, 3.51, 4.93, 4.46, 4.43, 4.36, 4.03, 3.91, 3.15, 2.9, 2.23, 2.31, 2.31, 2.4, 1.63, 2.12, 2.26, 2.31, 2.23, 2.21, 1.52, 0.8, 0.79, 0.0, 0.0, 0.0, 0.0, 0.0, -0.77, -0.72, 0.0, 0.0, 0.0, -0.72, -0.78, -0.64, -0.7, 0.0, 0.0, 1.88, 2.6, 2.24, 1.7, 1.26, 0.71, 0.54, 0.54, 1.2, -6.33, -6.33, -6.33, -6.33, -6.71, -6.97, -6.97, -6.97, -7.33, -6.98, -6.35, -5.89, -4.16, -2.0, -2.32, -1.3, 0.0, 0.0, 0.0, 0.0, 0.0, 0.0, 0.0, 0.0, 0.0, 0.0, -0.81, -0.87, -1.26, -2.24, -2.0, -2.12, -1.7, -1.34, -1.26, -1.24, -1.4, -1.16, -1.33, -1.84, -2.84, -4.11, -6.01, -7.9, -9.4, -10.98, -11.53, -11.37, -7.01, 0.0, 4.66, 5.34, 4.46, 4.11, 4.11, 3.9, 3.79, 3.27, 2.9, 2.35, 2.35, 2.23, 1.58, 1.49, 1.52, 1.52, 2.26, 1.49, 1.52, 1.54, 1.52, 0.76, 0.75, 0.0, 0.0, 0.0, 0.0, 0.0, -0.77, -0.72, 0.0, 0.0, 0.0, -0.72, -0.78, -0.64, -0.7, 0.0, 0.0, 1.88, 2.6, 2.24, 1.7, 1.26, 0.71, 0.54, 0.54, 1.2, -6.33, -6.33, -6.33, -6.33, -6.71, -6.97, -6.97, -6.97, -7.33, -6.98, -6.32, -5.98, -4.01, -2.29, -1.47, -0.81, 0.0, -0.65, -0.65, -0.71, -0.71, -0.71, -1.49, -0.76, -0.96, 0.0, 0.0, -0.7, -1.24, -2.24, -2.4, -2.4, -1.86, -1.34, -1.26, -1.49, -1.84, -2.07, -2.3, -3.07, -5.06, -7.96, -9.9, -11.49, -12.45, -12.72, -10.25, -5.64, 0.0, 4.4, 5.43, 4.43, 3.72, 3.72, 3.79, 3.64, 3.2, 2.99, 2.23, 2.35, 1.6, 1.52, 1.58, 1.55, 1.6, 2.29, 2.12, 1.49, 1.52, 1.54, 1.52, 1.54, 0.0, 0.0, 0.0, -0.81, -0.79, 0.0, -1.36, -0.76, -0.66, -0.7, -0.74, -0.74, -1.41, -0.7, -0.63, 0.0, 0.0, 1.2, 1.7, 1.2, 0.63, 0.0, 0.0, 0.8, 1.86, 2.15, -6.33, -6.33, -6.33, -6.33, -6.97, -6.97, -6.97, -6.97, -6.98, -6.97, -6.32, -6.23, -4.43, -1.84, -1.4, -1.49, -0.79, -0.76, -0.65, -0.54, -0.54, -0.71, -1.49, -1.74, -1.33, 0.0, 0.0, -0.79, -1.88, -2.68, -3.74, -3.83, -2.86, -2.6, -2.54, -2.21, -2.41, -3.91, -5.37, -6.68, -9.3, -10.9, -11.52, -10.51, -8.46, -6.31, -2.2, 1.6, 4.46, 4.43, 4.07, 4.01, 3.72, 3.72, 3.43, 3.11, 2.26, 2.18, 1.52, 1.52, 1.6, 0.77, 0.76, 1.47, 2.4, 2.29, 2.26, 2.12, 2.83, 2.7, 2.34, 1.6, 0.77, 0.0, -1.4, -2.31, -2.21, -2.31, -1.5, -1.55, -1.33, -1.41, -1.45, -1.52, -0.66, -0.7, -0.66, -0.66, 0.0, 1.26, 1.2, 0.63, 0.0, 0.0, 0.89, 2.24, 3.07, 3.53, -6.33, -6.33, -6.33, -6.33, -6.58, -6.97, -6.97, -6.97, -6.7, -6.67, -6.32, -5.65, -4.01, -1.88, -2.07, -2.2, -1.41, -0.61, -1.4, -1.9, -2.23, -1.49, -1.49, -0.71, -0.71, -0.85, -0.76, -0.98, -2.84, -3.51, -3.97, -5.34, -6.28, -6.21, -6.61, -6.8, -7.2, -7.64, -8.65, -9.92, -10.28, -8.93, -6.95, -3.79, -1.41, 0.0, 2.29, 3.11, 3.11, 3.11, 2.98, 3.11, 3.22, 2.98, 2.4, 2.2, 1.45, 1.49, 1.44, 0.77, 0.0, 0.76, 1.41, 2.0, 2.11, 2.35, 2.4, 2.18, 3.15, 3.11, 2.99, 3.07, 2.09, 0.77, -0.74, -2.82, -4.6, -4.01, -2.31, -1.94, -1.88, -1.84, -2.35, -1.52, -1.49, -1.33, -1.27, -1.13, 0.0, 0.89, 0.89, 0.32, 0.0, 1.34, 3.07, 4.02, 4.02, 3.97, -6.33, -6.33, -6.33, -6.58, -6.58, -6.7, -6.97, -6.98, -6.98, -6.95, -6.23, -4.94, -3.79, -3.35, -2.53, -2.3, -2.07, -2.3, -3.07, -4.46, -5.75, -5.64, -4.34, -2.23, -1.49, -1.74, -3.16, -3.93, -4.98, -4.02, -3.58, -4.24, -6.07, -8.05, -8.82, -8.91, -8.14, -8.68, -9.27, -9.3, -8.05, -6.32, -3.07, -0.76, 0.0, 0.0, 0.71, 0.74, 1.41, 1.47, 1.7, 1.47, 1.55, 1.55, 1.47, 0.78, 0.74, 0.79, 0.8, 0.0, 0.0, 0.69, 1.41, 2.4, 2.2, 2.26, 1.55, 1.55, 2.26, 2.35, 2.34, 2.97, 3.83, 3.1, 0.75, -1.47, -3.79, -4.29, -2.29, -0.66, -2.15, -3.14, -3.64, -2.8, -2.0, -2.73, -2.79, -1.49, 0.0, -0.0, 0.0, 0.0, 0.89, 3.13, 4.43, 4.47, 3.98, 3.53, -6.08, -6.33, -6.33, -6.33, -6.31, -6.31, -6.97, -6.98, -6.69, -6.59, -5.59, -4.65, -4.11, -3.22, -3.68, -2.15, -2.3, -4.01, -5.37, -5.38, -6.25, -7.28, -8.01, -8.46, -7.74, -6.99, -7.4, -7.31, -6.71, -5.36, -3.04, -2.8, -3.51, -5.75, -7.76, -8.48, -9.08, -9.1, -7.81, -6.44, -6.0, -5.94, -6.0, -5.37, -5.46, -4.0, -2.31, -0.78, 0.0, 0.0, 0.0, 0.0, 0.73, 0.73, 0.0, 0.0, 0.0, 0.0, 0.0, 0.0, 0.0, 0.78, 1.55, 1.47, 1.52, 1.55, 1.55, 0.78, 0.78, 0.77, 0.79, 1.48, 1.46, 2.3, 1.59, 0.0, -1.49, -1.88, -1.88, -1.33, -1.88, -3.72, -5.06, -5.3, -5.06, -5.05, -3.45, -1.79, -0.6, -0.0, -0.0, 1.34, 2.68, 4.47, 5.36, 4.43, 3.53, 3.53, -6.08, -6.33, -6.33, -6.33, -6.31, -6.31, -6.97, -6.7, -6.67, -6.28, -5.49, -5.08, -4.54, -3.07, -4.46, -2.98, -2.73, -4.29, -4.29, -3.72, -2.2, -2.2, -3.79, -6.94, -9.11, -8.91, -8.79, -7.52, -5.73, -4.98, -4.98, -4.98, -5.26, -6.64, -8.25, -9.08, -9.08, -8.63, -7.47, -7.64, -6.32, -7.4, -9.75, -10.4, -9.77, -7.28, -4.36, -2.29, -0.76, -1.01, -0.66, 0.0, 0.0, 0.0, 0.0, 0.0, 0.0, 0.0, 0.0, 0.0, 0.0, 0.0, 0.0, 0.72, 0.72, 0.78, 0.79, 0.0, 0.0, 0.0, 0.0, 0.0, 0.0, 0.0, 0.0, 0.0, 0.8, 0.0, 0.0, -1.27, -2.2, -4.12, -6.32, -6.96, -7.28, -5.44, -3.13, -1.58, -1.24, -0.0, 2.17, 3.13, 4.47, 6.26, 5.77, 4.24, 3.39, 3.53, -6.34, -6.33, -6.33, -6.33, -6.07, -6.31, -6.97, -6.7, -6.95, -6.23, -6.03, -7.01, -7.81, -8.4, -7.15, -5.43, -5.77, -5.37, -3.72, -1.88, -0.99, -1.03, -1.65, -3.2, -5.72, -7.81, -6.79, -4.47, -5.26, -6.36, -8.43, -10.68, -12.52, -12.47, -10.49, -8.4, -8.4, -10.21, -8.34, -4.89, -3.2, -4.57, -6.8, -5.94, -3.04, -2.68, -3.47, -3.93, -2.2, -1.55, -1.98, 0.0, 0.0, 0.0, 0.0, 0.0, 0.0, 0.0, 0.0, 0.0, 0.0, 0.0, 0.0, 0.0, 0.76, 0.74, 0.76, 0.0, 0.0, -0.8, -0.78, -0.7, -1.57, -1.38, -1.38, 0.0, 0.0, 0.78, 0.0, 0.0, -0.69, -3.15, -5.09, -6.25, -4.3, -2.68, -1.86, -1.2, -0.0, 2.49, 3.98, 4.88, 5.33, 5.36, 5.2, 4.09, 3.14, 3.32, -6.34, -6.08, -6.33, -6.33, -6.33, -6.31, -6.33, -6.34, -6.64, -6.79, -6.7, -7.76, -8.82, -10.91, -10.96, -10.55, -10.63, -11.02, -10.21, -9.75, -8.4, -8.0, -7.27, -6.4, -6.87, -6.99, -5.6, -4.82, -6.71, -9.39, -10.73, -12.52, -12.07, -11.18, -11.62, -9.33, -8.4, -7.07, -2.6, 0.0, -0.6, -2.4, -2.5, -1.49, -0.45, -0.0, -1.34, -2.17, -1.24, 0.0, 0.0, 0.0, 0.0, 0.0, 0.0, 0.0, 0.0, 0.0, 0.0, -0.77, -0.8, 0.0, 0.0, 0.0, 0.81, 0.7, 0.0, 0.0, 0.0, -1.49, -2.28, -2.14, -2.76, -2.06, -1.4, -0.69, -1.52, -1.5, -0.67, -0.71, -0.68, -1.4, -3.26, -3.26, -0.61, 0.8, 0.45, 0.0, 2.12, 3.97, 4.92, 5.36, 4.92, 4.47, 4.3, 4.09, 3.14, 3.07, -6.34, -6.08, -6.33, -6.33, -6.33, -6.33, -6.33, -6.35, -6.64, -6.87, -7.35, -8.37, -8.94, -9.86, -11.26, -11.99, -13.25, -13.82, -14.23, -14.48, -15.84, -15.94, -15.11, -12.62, -11.38, -8.8, -8.37, -8.37, -8.43, -9.83, -9.33, -5.77, -2.68, -2.12, -4.87, -10.28, -9.33, -3.04, 0.0, 1.2, 0.95, 0.0, -1.26, -1.9, -1.58, 0.0, 0.89, 0.89, 0.89, 0.63, 0.0, 0.0, 0.0, 0.0, 0.0, 0.0, 0.0, -0.76, -0.77, -1.52, -0.79, 0.0, 0.76, 0.76, 1.41, 1.6, 1.55, 1.49, 0.0, -2.4, -3.06, -3.61, -3.6, -2.76, -2.1, -2.1, -2.06, -2.97, -3.06, -3.25, -2.06, -1.36, -1.4, -2.11, 0.0, 2.8, 2.51, 1.84, 2.98, 4.12, 4.11, 4.43, 4.02, 4.02, 4.24, 3.72, 3.14, 2.79, -6.34, -6.34, -6.08, -6.33, -6.33, -6.33, -6.33, -6.35, -6.34, -6.87, -7.51, -8.15, -8.78, -9.08, -8.82, -9.08, -9.59, -11.12, -13.31, -14.53, -14.11, -14.03, -13.81, -13.39, -10.8, -9.77, -9.1, -6.03, -6.44, -4.24, -3.51, -2.23, 0.71, 1.58, -0.63, -3.58, -3.13, 0.0, 0.0, 0.95, 1.26, 0.0, -0.8, -3.82, -3.72, -1.2, 0.0, 0.0, 0.0, 0.0, -0.57, -0.65, -0.61, 0.0, 0.0, 0.0, 0.0, 0.0, -0.76, -0.78, 0.0, 1.24, 1.58, 1.9, 2.21, 4.43, 6.06, 5.3, 2.47, 0.7, 0.0, -0.71, -1.4, -2.35, -2.28, -3.16, -3.16, -3.21, -3.51, -3.4, -1.41, 0.0, 0.0, -0.81, 0.65, 3.61, 4.0, 2.82, 2.9, 3.38, 3.49, 3.39, 4.02, 4.02, 3.82, 3.45, 3.14, 2.79, -6.34, -6.34, -6.08, -6.33, -6.33, -6.33, -6.33, -6.35, -6.34, -6.92, -7.55, -7.86, -8.78, -9.13, -8.87, -8.58, -7.61, -7.59, -8.65, -10.3, -10.41, -10.41, -10.3, -6.15, -4.11, -3.84, -3.21, -3.81, -3.18, -2.16, -1.27, 0.0, 0.0, 0.0, 0.0, -0.0, 0.63, 1.34, 0.89, 0.63, 0.63, 0.0, -2.24, -3.58, -3.58, -3.04, -3.04, -2.68, -2.6, -2.8, -3.32, -3.07, -3.49, -3.79, -2.95, -2.2, -1.08, 0.0, 0.0, 0.0, 1.2, 2.68, 3.04, 3.51, 4.66, 6.07, 7.06, 7.89, 6.44, 6.06, 5.59, 4.56, 2.2, 0.0, -2.26, -3.06, -2.9, -1.52, -0.7, 0.0, 0.54, 0.61, 0.63, 0.76, 1.45, 3.15, 3.95, 3.53, 3.33, 2.6, 2.79, 3.45, 3.53, 3.58, 3.53, 3.07, 3.07, 3.07, -6.34, -6.34, -6.08, -6.08, -6.33, -6.33, -6.08, -5.98, -6.06, -6.64, -7.55, -8.19, -8.5, -9.13, -9.19, -9.21, -8.23, -6.71, -6.06, -6.95, -6.69, -6.98, -6.7, -4.66, -2.71, -2.69, -2.15, -2.21, -1.66, -1.12, -1.09, -1.52, -1.14, -1.16, -0.32, 0.6, 1.2, 1.79, 0.89, 0.0, -0.6, -1.2, -3.13, -8.43, -9.33, -9.33, -7.56, -7.15, -7.15, -7.15, -6.17, -6.88, -7.81, -6.99, -5.94, -4.24, -2.8, -0.99, 0.0, -0.0, 1.9, 3.47, 4.02, 3.95, 4.41, 4.41, 5.32, 4.87, 6.8, 6.08, 8.03, 7.06, 3.84, 0.65, -0.61, -1.55, 0.0, 0.65, 1.2, 1.4, 1.4, 0.73, 0.64, 0.67, 1.41, 2.31, 3.02, 3.85, 3.44, 3.47, 2.88, 3.16, 3.82, 3.97, 3.53, 3.32, 3.07, 3.45, -6.34, -6.34, -6.34, -6.08, -6.33, -6.33, -6.08, -5.98, -6.06, -6.35, -7.27, -7.9, -8.53, -8.85, -9.19, -9.5, -9.21, -7.96, -6.71, -6.35, -6.08, -6.33, -5.64, -4.51, -4.02, -3.34, -2.8, -2.77, -2.32, -2.32, -2.32, -2.8, -3.21, -3.0, -1.4, 1.79, 3.58, 2.68, 2.8, 0.0, -0.8, -2.48, -4.8, -7.52, -8.87, -8.87, -8.87, -8.49, -8.49, -5.81, -6.26, -7.31, -5.51, -3.04, -1.79, -2.24, -3.13, -4.0, -1.9, 0.0, 2.6, 3.04, 2.68, 2.6, 2.23, 2.12, 1.34, 0.95, 1.58, 3.93, 4.46, 3.45, 1.7, 0.45, 0.0, 1.24, 2.15, 3.72, 3.11, 2.29, 1.6, 0.78, 0.67, 0.0, 0.0, 0.78, 1.52, 2.21, 2.76, 3.15, 3.0, 3.78, 4.09, 4.73, 4.73, 3.6, 3.45, 3.45, -6.34, -6.34, -6.34, -5.69, -6.08, -6.33, -6.34, -5.98, -6.0, -6.35, -6.69, -7.6, -8.24, -8.56, -8.58, -9.21, -9.21, -8.59, -7.96, -7.33, -6.97, -6.7, -6.29, -5.6, -5.11, -4.58, -4.03, -3.36, -3.47, -2.83, -2.83, -2.92, -2.77, -2.02, -1.05, 0.6, 2.6, 2.8, 3.16, 0.0, -0.71, -1.61, -3.48, -5.26, -6.71, -5.81, -3.58, -2.97, -2.97, -4.47, -5.7, -3.04, -1.58, 0.0, 0.0, 0.0, -2.23, -3.6, -1.74, 1.24, 2.91, 4.77, 3.82, 2.53, 0.8, 0.0, -0.6, 0.0, 1.58, 2.8, 2.4, 0.89, -0.0, -0.0, 1.6, 3.07, 5.77, 5.76, 4.6, 3.91, 3.27, 2.4, 1.55, 0.74, 0.0, -1.49, -0.72, 0.0, 0.0, 1.63, 3.11, 4.73, 4.93, 4.93, 5.2, 3.72, 3.35, 3.35, -6.08, -6.34, -5.95, -5.95, -5.69, -6.08, -6.34, -6.35, -6.35, -6.35, -6.69, -7.32, -7.95, -8.56, -8.58, -8.59, -9.21, -9.21, -8.87, -8.23, -7.59, -6.94, -6.68, -5.83, -4.62, -4.07, -3.47, -3.55, -2.87, -2.95, -2.31, -2.29, -2.33, -2.13, -1.27, 0.0, 1.24, 0.76, 0.0, -1.19, -3.79, -2.5, -3.48, -2.6, -3.58, -1.26, 0.0, 1.34, 1.58, 0.0, 0.0, 0.0, 1.2, 1.4, 0.99, 0.0, -1.19, -1.05, 1.3, 4.43, 5.75, 4.65, 3.16, 2.48, 1.08, 0.0, -0.8, -0.89, 0.0, 1.6, 0.0, -0.89, -0.89, 0.0, 2.21, 4.84, 7.33, 7.73, 7.12, 6.2, 5.52, 4.5, 3.8, 2.06, 0.78, 0.0, -1.84, 0.0, 0.7, 2.79, 5.06, 5.36, 4.66, 4.09, 4.46, 4.37, 3.43, 3.43, -6.08, -6.34, -5.95, -5.95, -5.69, -5.69, -6.34, -6.35, -6.08, -6.35, -6.35, -6.98, -7.61, -8.24, -8.58, -7.96, -8.87, -9.21, -9.21, -7.96, -7.57, -6.92, -6.53, -4.72, -3.47, -2.85, -2.89, -2.95, -2.93, -2.91, -2.91, -2.91, -2.91, -2.87, -2.82, -2.31, -1.84, -2.68, -2.99, -2.95, -3.22, -3.6, -3.51, -2.68, -0.0, 1.26, 2.24, 2.68, 2.4, 2.8, 2.84, 3.35, 2.84, 2.23, 1.41, 1.08, 1.3, 2.16, 4.74, 5.24, 4.74, 4.43, 3.22, 2.2, 0.0, 0.0, -0.57, -1.7, -2.54, -2.23, -1.49, -0.61, 0.0, 1.41, 2.73, 3.48, 5.3, 6.45, 6.1, 5.51, 4.6, 4.5, 3.06, 2.06, 1.6, 1.55, 0.7, 0.65, 1.2, 2.53, 4.46, 5.72, 4.75, 3.78, 3.84, 3.48, 4.11, 4.11, -6.08, -6.08, -5.95, -5.95, -5.95, -5.69, -6.34, -6.35, -6.08, -6.08, -6.35, -6.98, -7.33, -7.96, -8.24, -8.66, -8.59, -9.21, -7.96, -6.94, -6.46, -6.88, -6.53, -5.3, -4.68, -5.5, -4.58, -5.56, -5.46, -4.77, -4.7, -4.67, -4.67, -4.67, -4.6, -4.65, -5.46, -6.59, -7.35, -6.52, -4.73, -4.4, -3.51, -2.0, -0.0, 1.79, 2.24, 1.9, 2.8, 2.53, 2.84, 3.72, 3.16, 3.16, 3.79, 3.49, 3.49, 4.43, 4.74, 4.43, 3.49, 3.49, 2.4, 0.76, 0.0, 0.0, -0.54, -2.21, -2.84, -1.8, 0.0, 0.74, 3.11, 3.87, 2.95, 1.45, 0.0, 0.0, 0.76, 1.58, 1.47, 0.74, 0.0, 0.0, 0.72, 0.7, 0.73, 2.0, 1.6, 2.21, 3.14, 4.46, 4.11, 3.48, 2.79, 3.16, 2.79, 2.79, -6.08, -6.08, -5.7, -5.95, -5.95, -5.95, -5.95, -6.35, -6.35, -6.35, -6.63, -6.98, -6.97, -7.33, -7.96, -8.24, -8.87, -9.17, -8.53, -7.52, -7.69, -8.18, -8.86, -8.66, -9.1, -9.22, -9.39, -8.16, -8.33, -7.63, -7.12, -7.12, -6.41, -6.06, -5.9, -5.85, -6.27, -6.98, -6.34, -4.21, -2.61, -2.22, -1.6, 0.0, 0.63, 2.24, 1.9, 1.4, 1.4, 2.53, 2.84, 3.72, 4.09, 4.8, 2.5, 3.07, 5.59, 2.84, 1.88, 2.4, 2.2, 2.0, 1.19, 0.0, 0.0, 0.0, 0.0, 0.0, 0.0, 1.55, 2.99, 4.58, 5.51, 3.83, 0.76, -1.54, -4.71, -6.14, -3.02, -1.5, -0.75, 0.0, 0.0, 0.0, 0.0, 0.7, 1.35, 3.12, 2.07, 2.53, 2.86, 2.84, 2.73, 2.79, 2.51, 2.51, 2.79, 2.79, -6.08, -6.08, -5.7, -5.95, -5.95, -5.95, -6.34, -6.08, -6.35, -6.35, -6.34, -6.71, -6.97, -6.96, -7.6, -7.96, -8.59, -8.87, -8.78, -9.9, -11.06, -10.77, -11.08, -10.45, -11.06, -11.08, -10.77, -10.47, -10.1, -10.08, -8.97, -8.52, -8.27, -7.6, -7.12, -6.48, -6.88, -6.97, -5.46, -3.37, -1.71, -0.55, 0.0, 0.0, 0.55, 1.41, 1.6, 0.0, 0.0, 1.6, 1.8, 3.16, 4.4, 5.2, 5.4, 3.07, 4.46, 4.73, 4.11, 1.13, 1.13, 2.23, 1.19, 0.0, 0.0, 0.57, 1.7, 2.68, 3.97, 5.43, 7.06, 7.82, 5.55, 2.35, -0.77, -4.71, -9.84, -10.28, -8.27, -5.28, -3.11, -0.75, 0.0, 0.0, 0.74, 0.66, 2.2, 3.38, 4.07, 3.48, 2.53, 2.53, 2.51, 2.23, 1.84, 1.84, 1.8, 1.8, -6.08, -5.7, -5.7, -5.7, -5.95, -5.95, -6.34, -6.08, -6.35, -6.35, -6.34, -6.71, -6.97, -6.96, -7.22, -7.59, -8.23, -8.58, -9.17, -10.4, -11.06, -11.38, -11.96, -11.67, -12.01, -11.4, -10.76, -10.11, -10.11, -9.45, -9.17, -9.0, -8.3, -8.3, -7.63, -6.96, -6.36, -6.31, -5.09, -3.18, -1.69, -1.11, 0.0, 0.0, 0.53, 1.6, 1.41, 0.0, 0.0, 0.0, 1.13, 3.35, 4.77, 5.2, 5.7, 5.81, 5.64, 7.21, 5.59, 3.16, 1.26, 1.24, 0.65, 0.0, 0.0, 2.12, 3.13, 3.51, 3.58, 4.92, 5.73, 7.64, 5.95, 2.17, -4.65, -7.59, -10.15, -11.3, -11.3, -9.21, -6.14, -2.97, -0.74, 0.73, 0.76, 1.52, 1.35, 2.0, 2.66, 3.78, 2.79, 1.84, 1.84, 2.07, 2.23, 2.23, 2.07, 2.07, -6.35, -6.35, -5.7, -5.7, -5.95, -5.95, -6.34, -6.08, -6.35, -6.35, -6.34, -6.71, -6.97, -6.96, -6.96, -7.59, -7.59, -7.96, -8.87, -9.84, -10.47, -10.47, -10.75, -11.3, -11.7, -11.4, -10.73, -9.82, -9.45, -8.79, -8.14, -8.14, -7.7, -7.45, -7.0, -6.3, -6.36, -5.67, -4.46, -2.77, -2.23, -1.06, -0.56, 0.0, 1.12, 2.22, 1.05, 0.0, 0.0, 0.0, 2.84, 4.24, 4.77, 5.2, 5.2, 5.7, 4.02, 4.87, 4.98, 3.79, 1.88, 0.65, 0.0, 0.0, 1.58, 2.68, 4.02, 2.68, 2.6, 2.4, 1.6, 1.6, 0.67, 0.0, -1.79, -3.58, -6.22, -7.98, -9.34, -10.13, -8.76, -5.94, -2.99, -0.76, 0.0, 0.0, 0.0, 0.66, 2.0, 3.43, 3.15, 2.51, 2.53, 2.53, 2.53, 2.51, 1.8, 1.8, -6.35, -6.35, -5.7, -5.7, -5.95, -5.95, -6.34, -6.34, -6.08, -6.08, -6.34, -6.71, -6.97, -6.96, -7.22, -6.94, -7.59, -7.59, -7.96, -8.86, -9.48, -9.48, -9.5, -9.82, -10.45, -11.1, -10.74, -10.08, -9.42, -8.11, -7.7, -7.03, -6.82, -6.36, -5.67, -5.85, -5.21, -4.54, -3.83, -2.77, -1.63, -1.09, 0.0, 0.56, 1.67, 2.2, 1.23, 0.0, 0.0, 2.84, 4.09, 4.09, 4.77, 4.77, 4.77, 5.2, 2.68, 2.68, 3.2, 3.79, 2.29, 0.7, 0.0, 0.8, 2.68, 4.92, 4.92, 6.26, 2.68, 2.6, 0.63, -1.66, -0.77, 0.0, 2.32, 1.2, -1.26, -4.34, -6.36, -7.73, -8.93, -7.59, -6.01, -4.87, -3.27, -2.12, -1.47, 0.0, 1.84, 4.09, 4.43, 4.12, 3.78, 2.84, 2.23, 1.8, 1.27, 1.27, -6.35, -6.35, -5.98, -5.7, -5.7, -5.7, -6.34, -6.34, -6.34, -6.34, -6.34, -6.33, -6.97, -6.96, -7.22, -6.94, -7.19, -7.59, -7.59, -8.22, -8.85, -9.48, -9.49, -9.21, -9.21, -10.13, -10.1, -10.08, -9.4, -9.0, -7.66, -7.0, -6.33, -5.67, -5.67, -5.34, -5.21, -4.68, -4.0, -2.75, -2.12, -1.1, 0.0, 0.57, 1.67, 1.7, 1.16, 1.07, 1.58, 2.23, 2.86, 3.79, 4.09, 4.09, 4.66, 4.24, 4.02, 1.79, 1.34, 1.4, 1.84, 0.72, 0.0, 1.34, 3.95, 4.92, 5.36, 5.81, 4.92, 1.34, -1.24, -3.22, -1.09, 2.28, 4.71, 5.38, 4.92, 0.74, -3.22, -5.86, -8.25, -8.93, -8.18, -6.98, -5.3, -3.9, -1.35, 0.0, 2.53, 4.52, 6.0, 6.32, 5.38, 3.72, 2.73, 1.8, 1.11, 1.11, -5.98, -5.98, -5.98, -5.7, -5.7, -5.7, -5.95, -6.34, -6.34, -6.34, -6.34, -6.33, -6.97, -6.96, -6.96, -6.94, -7.19, -7.19, -7.59, -7.83, -8.2, -8.83, -9.21, -9.22, -9.5, -9.49, -9.47, -9.7, -9.67, -8.97, -8.3, -7.63, -6.96, -6.3, -5.81, -5.81, -5.34, -4.77, -4.57, -3.78, -2.89, -1.73, 0.0, 0.57, 1.65, 1.65, 1.65, 2.14, 2.32, 2.18, 2.84, 2.86, 2.4, 4.09, 4.09, 3.72, 3.6, 2.4, 1.79, 0.0, 0.0, 1.01, 0.79, 1.7, 2.68, 4.02, 4.47, 4.02, 3.07, 2.12, 0.0, -1.6, -0.73, 1.6, 4.61, 7.48, 8.35, 5.45, 0.0, -4.52, -8.63, -9.68, -9.6, -8.18, -6.0, -4.01, -1.35, 1.27, 3.49, 4.52, 3.72, 6.35, 5.35, 3.97, 2.6, 1.41, 1.23, 1.23, -5.98, -5.98, -5.98, -5.98, -5.7, -5.7, -5.95, -5.95, -6.34, -6.34, -6.34, -6.33, -6.97, -6.7, -6.96, -6.94, -7.19, -7.19, -7.32, -7.57, -7.8, -8.18, -8.57, -9.49, -9.84, -9.49, -9.2, -9.19, -9.42, -9.0, -9.0, -8.77, -8.08, -7.63, -6.93, -6.93, -6.44, -5.85, -5.25, -5.17, -3.91, -2.69, -0.59, 0.57, 1.12, 1.73, 1.71, 1.71, 1.73, 1.65, 2.36, 2.18, 1.73, 1.6, 1.26, 1.26, 1.6, 1.4, 1.2, 0.0, 0.0, 0.0, 0.0, 1.49, 5.36, 3.13, 3.13, 2.24, 1.6, 0.57, 0.0, -1.33, -1.52, 0.0, 3.21, 6.09, 6.21, 4.08, 2.31, -2.53, -7.12, -9.58, -9.86, -8.93, -7.33, -4.75, -0.66, 1.84, 3.49, 3.49, 2.51, 1.94, 3.69, 3.09, 2.72, 1.3, 1.35, 1.35, -5.72, -5.72, -5.98, -5.98, -5.7, -5.7, -5.7, -5.95, -6.34, -6.34, -6.34, -6.33, -6.58, -6.7, -6.96, -6.94, -7.19, -6.92, -7.32, -7.57, -7.8, -7.76, -8.18, -8.85, -9.49, -9.84, -9.47, -9.19, -9.45, -8.79, -8.79, -8.11, -8.33, -8.33, -7.63, -7.63, -6.93, -6.3, -5.88, -5.11, -4.54, -2.97, -1.09, 0.0, 1.07, 1.67, 1.16, 1.12, 1.14, 1.63, 2.16, 2.18, 1.76, 1.13, 0.54, 0.0, 0.0, 1.4, 1.2, 0.89, 0.0, -0.7, -1.52, 1.2, 3.58, 6.26, 3.07, 1.6, 0.0, -0.57, 0.0, -0.7, -2.11, -2.07, -0.59, 0.0, 0.0, 0.74, 1.49, 0.0, -3.82, -8.42, -9.57, -8.06, -6.8, -3.78, 0.0, 1.88, 2.51, 2.2, 1.27, 0.73, 2.12, 2.0, 2.0, 1.36, 0.67, 0.67, -5.72, -5.72, -5.72, -5.98, -5.7, -5.7, -5.7, -5.95, -6.34, -6.34, -6.34, -6.33, -6.33, -6.7, -6.96, -6.94, -6.94, -7.19, -6.92, -7.57, -7.8, -7.76, -7.76, -8.2, -8.58, -8.85, -9.48, -9.47, -9.19, -8.79, -8.79, -8.37, -8.11, -8.11, -7.66, -7.63, -6.96, -6.52, -6.36, -5.77, -4.51, -3.3, -1.71, -0.79, 0.0, 1.67, 1.09, 0.0, 0.0, 1.12, 1.76, 2.23, 1.88, 1.24, 0.0, 0.0, 0.0, 1.58, 1.34, 0.45, -0.6, -1.8, -1.41, 1.58, 3.58, 4.02, 5.16, 2.91, 0.0, -1.2, -1.24, -0.66, -0.74, -3.11, -6.39, -7.59, -5.28, -2.31, 0.0, 0.71, -0.57, -4.55, -6.3, -5.86, -2.48, -0.73, 0.7, 1.16, 0.66, 0.63, 0.66, 0.66, 0.61, 0.65, 1.36, 1.32, 0.64, 0.64, -5.72, -5.72, -5.72, -5.72, -5.98, -5.7, -5.7, -5.95, -6.34, -6.34, -6.34, -6.33, -6.33, -6.31, -6.96, -6.94, -6.94, -7.19, -6.92, -7.57, -7.55, -7.76, -7.5, -7.53, -7.8, -8.2, -8.85, -9.48, -9.47, -8.79, -8.79, -8.14, -8.14, -7.7, -7.45, -7.66, -7.0, -6.52, -6.36, -5.77, -4.51, -3.45, -2.21, -1.12, -0.53, 0.0, -0.8, -1.73, -0.57, 0.63, 0.89, 1.79, 1.79, 1.34, 0.45, 0.0, 0.63, 1.2, 1.34, 0.0, -1.24, -1.84, -0.65, 1.79, 2.24, 2.63, 3.58, 4.15, 2.5, 0.0, -1.58, -1.16, 0.0, 0.0, -4.71, -8.12, -8.53, -5.86, -2.9, 0.0, 0.0, -0.57, -2.26, -2.26, 0.0, 1.4, 2.06, 1.45, 0.0, 0.0, 0.0, 0.66, 0.67, 0.74, 0.71, 0.67, 0.69, 0.69, -5.72, -5.72, -5.72, -5.72, -5.98, -5.7, -5.7, -5.7, -5.95, -6.34, -6.34, -6.08, -6.33, -6.58, -6.96, -6.7, -6.94, -7.19, -6.92, -7.16, -7.55, -7.53, -7.5, -7.76, -7.53, -7.8, -8.2, -8.57, -8.56, -8.55, -8.14, -8.14, -8.14, -7.7, -7.7, -7.24, -7.03, -6.56, -6.4, -5.32, -4.54, -3.45, -2.71, -1.65, -1.67, -3.15, -4.75, -3.32, -0.61, 0.0, 0.0, 0.6, 1.34, 1.7, 1.34, 0.89, 0.89, 1.34, 1.34, 0.45, -0.6, -0.54, 0.57, 1.2, 1.34, 1.2, 1.26, 2.24, 2.15, 0.7, -0.65, -0.57, 0.61, 2.28, 0.0, -3.96, -7.12, -6.79, -4.71, -2.97, -1.33, 0.0, 0.0, 1.16, 2.25, 3.37, 3.47, 2.82, 1.4, 0.67, 0.67, 0.63, 0.0, 0.64, 0.65, 0.65, 1.32, 1.32, -5.72, -5.72, -5.72, -5.72, -5.72, -5.7, -5.7, -5.7, -5.95, -6.34, -6.34, -6.08, -6.33, -6.58, -6.31, -6.96, -6.94, -6.94, -6.92, -7.16, -7.13, -7.53, -7.76, -7.06, -7.1, -7.8, -7.55, -8.22, -8.36, -8.18, -8.14, -8.37, -8.37, -8.14, -7.7, -7.7, -7.03, -6.36, -5.96, -5.14, -4.54, -3.94, -2.71, -2.26, -2.73, -4.16, -4.54, -2.83, -0.53, 0.0, 0.0, 0.0, 0.0, 0.71, 1.26, 1.34, 1.34, 1.34, 1.34, 1.2, 0.63, 0.6, 1.26, 0.8, 0.95, 0.45, -0.0, 0.0, 0.0, 0.0, 0.0, 0.0, 0.63, 0.96, 1.53, -0.78, -4.68, -5.3, -4.65, -3.51, -2.06, 0.0, 1.36, 2.84, 3.47, 3.53, 3.5, 3.5, 2.34, 2.17, 1.32, 0.0, 0.0, 0.0, 0.65, 0.69, 0.71, 0.71, -5.72, -5.72, -5.72, -5.72, -5.72, -5.98, -5.7, -5.7, -5.95, -6.34, -6.34, -6.08, -6.33, -6.33, -6.31, -6.56, -6.94, -6.94, -7.19, -6.92, -6.9, -7.13, -7.1, -7.1, -7.1, -7.1, -7.55, -7.96, -8.23, -8.61, -8.57, -8.81, -8.79, -8.79, -8.14, -7.7, -7.48, -7.06, -6.43, -5.36, -4.57, -3.97, -2.86, -2.73, -2.71, -3.3, -2.9, -1.73, -0.56, -0.57, -0.57, -0.55, -0.58, 0.0, 0.0, 0.53, 1.2, 1.6, 1.7, 2.12, 2.4, 1.26, 1.4, 0.6, 0.95, 0.63, 0.0, -0.89, -1.58, -0.7, 0.0, 1.2, 0.6, -1.13, -1.51, -0.79, -1.52, -1.4, -1.2, -0.61, 0.0, 0.7, 2.02, 2.1, 2.3, 2.35, 2.33, 2.35, 2.22, 1.47, 1.58, 0.0, 0.0, 0.0, 0.0, 0.0, 0.0, 0.0, -5.72, -5.72, -5.72, -5.72, -5.72, -5.98, -5.7, -5.7, -5.95, -5.95, -6.08, -6.08, -6.33, -6.33, -6.31, -6.56, -6.29, -6.94, -6.94, -6.92, -6.9, -7.13, -7.1, -7.1, -7.1, -7.1, -7.53, -8.22, -8.59, -8.85, -8.57, -8.83, -8.81, -8.81, -8.55, -8.14, -7.48, -7.06, -6.22, -5.17, -4.57, -3.49, -2.86, -2.86, -2.33, -2.3, -1.73, -1.73, -1.73, -1.71, -1.71, -1.73, -1.67, -1.09, -0.58, 0.0, 0.57, 0.59, 1.24, 1.9, 3.39, 2.8, 1.9, 1.58, 0.63, 0.0, 0.0, -0.63, -1.26, -0.85, 0.0, 1.4, 0.76, -2.26, -4.55, -1.53, 0.77, 2.35, 2.06, 1.36, 0.7, 0.0, 0.0, 0.0, 0.0, 0.6, 1.19, 1.72, 1.44, 1.36, 0.67, 0.0, -0.69, -1.4, -1.32, 0.0, 0.0, 0.0, -5.72, -5.72, -5.72, -5.72, -5.72, -5.72, -5.7, -5.7, -5.7, -5.95, -6.08, -6.08, -6.33, -6.33, -6.33, -6.56, -6.29, -6.94, -6.94, -6.92, -7.16, -7.13, -6.88, -7.1, -7.1, -6.85, -7.53, -8.2, -8.58, -8.58, -8.57, -8.83, -8.83, -8.83, -8.16, -8.16, -7.5, -7.1, -6.25, -5.2, -3.91, -3.45, -2.97, -2.83, -2.19, -1.75, -1.73, -1.73, -2.15, -2.25, -2.35, -2.35, -2.28, -2.19, -1.71, -0.57, 0.0, 0.55, 0.57, 2.21, 2.8, 2.8, 1.9, 1.58, 0.0, 0.0, 0.0, -0.6, -1.26, -0.57, 0.0, 0.65, 0.0, -0.75, -2.31, -0.79, 2.28, 5.45, 5.35, 2.3, 0.0, -1.38, -2.02, -1.33, 0.0, 0.0, 0.6, 0.71, 0.69, 0.0, 0.0, 0.0, -0.77, -2.12, -2.06, -2.66, -1.44, -1.44, -5.72, -5.72, -5.72, -5.72, -5.72, -5.72, -5.7, -5.7, -5.7, -5.95, -6.08, -6.08, -6.33, -6.33, -6.33, -6.31, -6.56, -6.53, -6.94, -6.92, -6.92, -6.9, -7.13, -6.88, -7.1, -7.1, -7.53, -7.93, -8.2, -8.2, -8.18, -8.57, -8.18, -8.18, -7.93, -7.53, -7.29, -6.46, -5.62, -4.54, -4.08, -3.42, -2.8, -2.3, -1.67, -1.75, -1.73, -1.71, -2.25, -2.9, -2.9, -2.9, -2.77, -2.83, -2.37, -1.1, 0.0, 0.0, 0.55, 1.84, 2.21, 2.4, 1.58, 0.63, 0.6, 0.0, 0.6, 0.0, 0.0, -0.57, -0.8, 0.0, 0.0, 1.45, 0.0, 0.0, 0.76, 3.04, 3.13, 1.37, 0.0, -1.4, -2.02, -1.44, 0.0, 0.0, 0.0, 0.0, 0.0, 0.0, -0.69, -0.67, -1.58, -2.31, -2.82, -2.82, -2.82, -2.82, -6.0, -6.0, -5.72, -5.72, -5.72, -5.72, -5.98, -5.7, -5.7, -5.95, -5.95, -6.08, -6.33, -6.33, -6.33, -6.31, -6.56, -6.29, -6.94, -6.94, -6.92, -6.9, -7.13, -6.88, -6.88, -6.43, -7.1, -8.18, -8.2, -8.2, -8.2, -8.57, -8.18, -8.18, -7.8, -7.55, -6.92, -6.29, -5.23, -4.57, -3.91, -3.42, -2.83, -1.52, -1.14, -1.11, -2.25, -2.23, -2.75, -2.87, -3.39, -3.39, -3.42, -2.83, -2.89, -1.76, -0.53, 0.0, 0.57, 1.33, 1.88, 1.9, 1.58, 0.63, 0.6, 0.0, 0.6, 0.0, 0.0, -0.57, -1.26, -0.6, 0.65, 3.11, 2.25, 0.0, -1.58, -1.5, -2.35, -2.14, -1.39, -0.69, 0.0, 0.0, 0.0, 0.0, 0.0, 0.0, -0.69, -1.4, -1.4, -1.36, -1.3, -2.26, -2.35, -2.72, -3.2, -3.6, -6.0, -6.0, -5.72, -5.72, -5.72, -5.72, -5.98, -5.7, -5.7, -5.95, -5.95, -6.08, -6.33, -6.33, -6.33, -6.31, -6.31, -6.29, -6.53, -6.94, -6.92, -6.92, -6.9, -7.13, -6.88, -6.43, -7.1, -7.53, -8.18, -8.2, -8.2, -8.18, -8.57, -8.18, -8.2, -7.31, -6.94, -5.67, -5.04, -4.6, -4.12, -3.76, -2.89, -1.65, -1.14, -1.15, -2.87, -3.53, -4.05, -4.05, -4.05, -4.05, -3.91, -3.32, -2.73, -1.65, -0.59, 0.0, 0.57, 1.13, 1.4, 1.24, 1.58, 0.0, 0.0, 0.0, 0.0, -0.57, -0.54, -1.24, -1.26, -0.89, 0.0, 1.55, 3.01, 2.25, -0.76, -4.5, -6.48, -5.57, -2.81, -0.71, 0.0, 0.0, 0.0, 0.0, 0.0, -0.67, -0.67, -0.74, -0.64, -0.67, -0.61, -1.63, -2.2, -2.2, -2.12, -3.2, -6.0, -6.0, -6.0, -5.72, -5.72, -5.72, -5.72, -5.7, -5.7, -5.95, -5.95, -6.08, -6.33, -6.33, -6.33, -6.31, -6.31, -6.31, -6.29, -6.53, -6.68, -6.92, -6.9, -6.9, -7.13, -6.43, -6.43, -7.1, -7.53, -8.2, -7.55, -8.2, -8.18, -8.18, -8.2, -7.57, -6.94, -5.92, -5.04, -4.63, -4.63, -4.0, -2.75, -2.8, -2.99, -2.87, -4.48, -5.17, -5.2, -5.2, -5.2, -4.54, -4.6, -3.52, -2.75, -2.32, -1.16, 0.0, 0.0, 0.59, 1.0, 0.71, 0.0, 0.0, 0.0, -1.4, -0.57, -1.24, -1.24, -1.24, -0.57, -0.63, -0.6, 0.0, 3.08, 7.01, 5.48, 0.0, -4.71, -5.62, -4.12, -2.76, -1.39, -0.69, 0.0, 0.0, 0.0, 0.0, 0.0, 0.0, 0.0, 0.0, 0.0, -0.8, -1.55, -1.45, -1.41, -2.12, -6.0, -6.0, -6.0, -5.72, -5.72, -5.72, -5.72, -5.7, -5.7, -5.7, -5.95, -5.69, -6.33, -6.33, -6.33, -6.33, -6.31, -6.31, -6.29, -6.53, -6.53, -6.92, -6.92, -6.9, -6.46, -6.46, -6.46, -6.43, -6.88, -7.53, -7.55, -7.55, -8.2, -8.18, -8.2, -7.57, -6.94, -6.33, -5.69, -5.29, -4.63, -4.03, -3.42, -3.45, -5.1, -6.33, -6.27, -6.29, -6.31, -5.89, -5.64, -5.23, -4.63, -3.56, -2.75, -2.32, -1.67, 0.0, 0.0, 0.0, 0.61, 0.0, 0.0, 0.0, -1.4, -1.6, -0.71, -2.48, -1.24, -1.24, -0.57, -0.57, -1.26, -1.49, 0.0, 4.18, 6.2, 4.55, 0.73, -1.6, -2.5, -2.23, -2.04, -0.69, -0.67, 0.0, 0.0, 0.0, 0.0, 0.0, 0.0, 0.0, 0.0, -0.75, -0.78, -0.8, 0.0, 0.0, -5.72, -5.72, -6.0, -6.0, -5.72, -5.72, -5.72, -5.7, -5.7, -5.7, -5.95, -5.69, -6.08, -6.33, -6.33, -6.33, -6.31, -6.31, -6.56, -6.29, -6.53, -6.27, -6.5, -6.46, -6.46, -6.46, -6.46, -6.46, -6.68, -7.13, -7.13, -7.55, -7.55, -7.93, -8.2, -7.96, -7.33, -6.31, -5.92, -5.04, -4.63, -4.03, -3.42, -3.42, -5.09, -5.69, -5.2, -5.04, -5.06, -5.06, -5.04, -4.6, -4.0, -3.37, -2.75, -2.77, -1.16, -0.55, 0.0, 0.0, 0.0, 0.0, 0.0, 0.0, -1.4, -1.13, -1.27, -1.27, -0.71, -0.54, 0.0, -0.71, -1.24, -1.9, -2.21, -0.79, 0.75, 3.07, 4.71, 2.99, 0.61, 0.0, -0.67, -0.69, -1.36, -0.74, -0.67, -0.71, -0.71, -0.72, -0.75, -1.39, -0.72, -1.5, 0.0, 2.5, 2.5, 2.5, -5.72, -5.72, -5.72, -6.0, -5.72, -5.72, -5.72, -5.98, -5.7, -5.7, -5.95, -5.95, -6.08, -6.33, -6.33, -6.33, -6.31, -6.31, -6.31, -6.29, -6.53, -6.53, -6.5, -6.5, -6.46, -6.46, -6.46, -6.46, -6.46, -6.46, -6.9, -6.9, -7.31, -7.55, -8.2, -7.96, -7.6, -6.97, -6.08, -5.45, -4.63, -3.8, -3.6, -3.4, -4.0, -3.94, -3.42, -3.3, -3.32, -4.0, -4.0, -4.0, -3.37, -2.96, -2.77, -2.77, -2.36, -1.19, -0.57, 0.0, 0.0, 0.0, -0.65, -1.6, 0.0, 0.0, 0.0, -1.27, 0.0, 0.0, 0.0, -0.54, -2.21, -2.53, -4.46, -5.46, -3.09, 0.0, 3.01, 6.28, 7.01, 5.45, 3.59, 1.41, 0.0, -1.44, -1.3, -2.12, -2.9, -2.89, -2.89, -2.89, -2.11, -0.8, 1.2, 4.92, 4.92, 4.92, -5.72, -5.72, -5.72, -5.72, -5.72, -5.72, -5.72, -5.72, -5.7, -5.7, -5.95, -5.95, -6.08, -6.33, -6.33, -6.33, -6.58, -6.31, -6.31, -6.29, -6.29, -6.53, -6.27, -6.5, -6.5, -6.46, -6.46, -6.46, -6.46, -6.46, -6.46, -6.46, -6.9, -6.9, -7.57, -7.59, -7.33, -6.71, -6.08, -5.69, -5.06, -4.66, -3.8, -4.03, -4.0, -3.76, -3.27, -2.93, -2.8, -3.49, -3.49, -3.35, -2.75, -2.8, -2.82, -2.82, -2.36, -1.73, -1.08, -0.57, 0.0, 0.0, -0.61, -0.61, 0.0, 0.0, 0.0, 0.71, 0.71, 0.57, 0.0, -1.2, -2.86, -3.49, -5.09, -5.09, -3.72, -0.77, 1.54, 5.38, 8.74, 9.32, 7.82, 5.65, 3.47, 0.68, -0.71, -2.12, -4.14, -4.14, -4.4, -2.2, -1.35, 0.71, 3.58, 4.47, 4.47, 4.47, -5.72, -5.72, -5.72, -5.72, -6.0, -5.72, -5.72, -5.72, -5.7, -5.7, -5.7, -5.95, -6.08, -6.33, -6.33, -6.33, -6.33, -6.31, -6.31, -6.31, -6.29, -6.53, -6.53, -6.5, -6.5, -6.25, -6.46, -6.46, -6.46, -6.46, -6.46, -6.25, -6.5, -6.92, -6.92, -6.94, -6.97, -6.71, -6.34, -5.95, -5.29, -4.63, -4.66, -4.2, -3.97, -3.94, -4.12, -3.42, -3.27, -3.45, -3.45, -3.49, -3.37, -2.77, -2.82, -2.2, -2.2, -2.2, -1.76, -1.11, -0.59, -0.61, -0.61, -0.61, 0.0, 0.0, 0.0, 0.0, 0.0, 0.0, -1.24, -2.21, -2.86, -3.49, -3.14, -2.53, -1.49, -0.74, 0.74, 3.78, 7.01, 8.74, 7.95, 7.13, 6.34, 4.31, 2.18, -0.68, -3.09, -5.44, -3.4, -1.33, 0.0, 2.24, 3.53, 3.53, 3.53, 3.53, -5.72, -5.72, -5.72, -5.72, -5.72, -5.72, -5.72, -5.72, -5.98, -5.7, -5.7, -5.95, -5.69, -6.33, -6.33, -6.33, -6.33, -6.31, -6.31, -6.31, -6.29, -6.29, -6.53, -6.27, -6.5, -6.5, -6.25, -6.46, -6.46, -6.46, -6.46, -6.25, -6.5, -6.27, -6.53, -6.56, -6.97, -6.71, -6.34, -6.34, -5.7, -5.06, -4.66, -4.42, -4.63, -3.94, -4.12, -3.91, -3.91, -3.91, -3.94, -3.76, -4.0, -3.6, -2.2, -2.22, -2.22, -2.22, -1.76, -1.13, -0.51, -0.61, -0.53, -0.53, 0.0, 0.0, 0.0, -1.27, -1.41, -1.2, -1.88, -2.5, -2.15, -2.5, -1.88, -1.16, -0.7, 0.0, 0.79, 3.55, 5.28, 6.47, 7.11, 8.68, 7.8, 5.81, 2.91, 0.67, -0.78, -1.9, -1.9, -1.24, 0.0, 2.24, 2.24, 2.15, 2.15, 2.15, -5.72, -5.72, -5.72, -5.72, -5.72, -5.72, -5.72, -5.72, -5.98, -5.7, -5.7, -5.95, -5.95, -6.08, -6.33, -6.33, -6.33, -6.33, -6.31, -6.31, -6.31, -6.29, -6.53, -6.27, -6.5, -6.5, -6.5, -6.46, -6.46, -6.46, -6.46, -6.46, -6.5, -6.27, -5.86, -5.67, -6.08, -6.34, -6.34, -6.34, -5.7, -5.06, -5.32, -4.63, -4.63, -4.4, -4.6, -4.12, -3.91, -3.91, -4.12, -3.94, -3.97, -4.03, -2.82, -2.22, -2.23, -2.23, -1.8, -1.13, -1.16, -0.53, -0.65, -0.54, -0.71, 0.0, -1.27, -1.41, -1.08, -0.71, -0.71, -2.23, -1.86, -1.9, -1.2, -1.16, -0.59, 0.0, 1.47, 3.11, 3.09, 4.58, 7.82, 10.17, 9.32, 6.42, 3.41, 1.4, 0.0, -0.63, -0.89, -0.45, 0.0, 0.89, 1.2, 1.24, 1.24, 1.24, -5.72, -5.72, -5.72, -5.72, -5.72, -6.0, -5.72, -5.72, -5.72, -5.7, -5.7, -5.95, -5.95, -6.08, -6.33, -6.33, -6.33, -6.33, -6.07, -6.31, -6.31, -6.29, -6.29, -6.53, -6.27, -6.5, -6.5, -6.5, -6.46, -6.46, -6.46, -6.25, -6.5, -5.83, -5.64, -5.26, -5.7, -5.7, -6.08, -6.34, -5.7, -5.7, -5.32, -5.06, -4.63, -4.4, -4.6, -4.6, -4.38, -4.6, -4.6, -3.94, -3.97, -4.0, -3.45, -2.84, -2.22, -2.48, -1.8, -1.13, -1.16, -1.0, -1.2, -1.2, -1.24, -0.8, -0.85, -0.76, 0.0, 0.0, 0.0, -0.76, -1.9, -1.9, -1.88, -1.4, -0.61, 0.0, 0.7, 2.2, 2.2, 3.15, 6.62, 9.39, 8.43, 5.57, 1.44, 0.66, 1.61, 2.24, 1.7, 0.57, 0.57, -0.0, 0.0, 0.0, 0.0, 0.0, -5.72, -5.72, -5.72, -5.72, -5.72, -5.72, -5.72, -5.72, -5.72, -5.98, -5.7, -5.7, -5.95, -6.08, -6.33, -6.33, -6.33, -6.33, -6.33, -6.31, -6.31, -6.29, -6.29, -6.53, -6.27, -6.27, -6.5, -6.5, -6.5, -6.25, -6.25, -6.25, -6.5, -5.83, -5.64, -5.26, -5.06, -5.08, -5.72, -5.72, -5.72, -5.72, -5.08, -5.08, -4.63, -4.63, -4.6, -4.6, -4.6, -4.6, -4.6, -4.63, -4.42, -4.45, -4.08, -3.45, -3.08, -2.44, -1.8, -1.13, -1.16, -1.16, -1.61, -1.61, -1.88, -2.21, -1.58, -0.8, 0.0, 0.0, 0.0, 0.0, -0.61, -2.15, -1.88, -1.4, -0.65, 0.0, 0.0, 0.59, 1.35, 2.29, 4.03, 4.68, 4.71, 2.13, 0.69, 0.59, 1.7, 3.13, 3.13, 2.6, 0.95, 0.0, -0.4, -0.57, -0.57, -0.57, -5.72, -6.01, -5.72, -5.72, -5.72, -5.72, -5.72, -5.72, -5.72, -5.98, -5.7, -5.7, -5.95, -5.95, -6.08, -6.33, -6.33, -6.33, -6.33, -6.07, -6.31, -6.31, -6.29, -6.29, -6.53, -6.27, -6.27, -6.5, -6.5, -6.5, -6.25, -6.5, -6.27, -5.86, -5.64, -5.26, -5.06, -4.44, -4.69, -5.09, -5.09, -5.09, -5.09, -4.44, -4.66, -4.42, -4.63, -4.6, -4.6, -4.6, -4.6, -4.63, -4.42, -4.45, -4.46, -4.47, -4.12, -3.08, -2.44, -1.8, -1.6, -1.84, -1.61, -2.23, -2.23, -2.53, -1.9, -1.6, -1.86, -1.9, -1.2, -0.53, -0.7, -1.33, -1.88, -1.88, -1.2, 0.0, 0.0, 0.0, 0.59, 1.41, 1.47, 1.47, 0.7, 0.0, 0.0, 0.61, 0.89, 1.7, 2.63, 2.17, 1.2, 0.0, -0.6, 0.0, 0.0, 0.0, -6.01, -6.01, -5.72, -5.72, -5.72, -5.72, -6.0, -5.72, -5.72, -5.98, -5.7, -5.7, -5.95, -5.95, -5.69, -5.69, -5.92, -6.33, -6.33, -6.33, -6.31, -6.31, -6.29, -6.29, -6.53, -6.53, -6.27, -6.27, -6.5, -6.5, -6.5, -6.5, -6.27, -5.86, -5.89, -5.26, -5.06, -4.66, -4.69, -4.45, -4.71, -4.71, -4.45, -4.69, -4.69, -4.44, -4.66, -4.63, -4.4, -4.6, -4.6, -4.63, -4.42, -4.45, -4.71, -4.73, -4.47, -3.84, -2.84, -2.44, -2.48, -2.23, -2.51, -2.51, -2.84, -3.16, -2.21, -2.6, -2.6, -2.6, -2.6, -2.5, -2.53, -2.79, -1.88, -2.21, -1.49, -0.57, 0.0, 0.0, 0.0, 0.7, 0.7, 0.0, 0.0, 0.0, 0.0, 0.53, 0.0, -0.0, 0.0, 0.6, 0.0, -0.6, 0.0, 2.0, 2.0, 2.0, -6.01, -6.01, -6.01, -5.72, -5.72, -5.72, -5.72, -5.72, -5.72, -5.72, -5.98, -5.7, -5.7, -5.95, -5.95, -5.69, -5.69, -5.92, -6.33, -6.33, -6.31, -6.31, -6.56, -6.29, -6.29, -6.53, -6.53, -6.53, -6.27, -6.5, -6.5, -6.27, -6.53, -5.86, -5.67, -5.26, -5.06, -4.66, -4.69, -4.45, -4.45, -4.71, -4.45, -4.69, -4.69, -4.69, -4.44, -4.66, -4.63, -4.63, -4.63, -4.63, -4.44, -4.45, -4.71, -5.1, -4.81, -4.47, -4.12, -3.22, -2.86, -2.86, -2.86, -2.86, -2.86, -3.48, -3.79, -3.48, -2.23, -1.86, -2.91, -3.74, -4.0, -2.86, -2.4, -2.4, -1.86, -1.26, -0.71, -0.54, -0.65, 0.0, 0.78, 1.58, 2.08, 2.16, 0.67, 0.0, -1.2, -1.7, -1.79, -1.2, -1.26, 0.0, 1.86, 3.45, 3.45, 3.45, -6.01, -6.01, -6.01, -6.01, -5.72, -5.72, -5.72, -5.72, -5.72, -5.72, -5.98, -5.7, -5.7, -5.95, -5.95, -5.69, -5.69, -5.92, -5.92, -6.33, -6.07, -6.31, -6.31, -6.29, -6.29, -6.29, -6.29, -6.53, -6.53, -6.27, -6.27, -6.27, -6.29, -5.64, -5.67, -5.26, -5.06, -5.08, -4.44, -4.69, -4.69, -4.69, -4.69, -4.69, -4.69, -4.44, -4.44, -4.66, -4.63, -4.63, -4.63, -4.42, -4.44, -4.45, -5.1, -5.1, -5.1, -5.08, -4.45, -4.12, -3.49, -3.49, -3.2, -3.2, -3.2, -3.49, -3.79, -3.49, -1.49, -1.9, -2.21, -2.5, -2.5, -1.9, -1.26, -1.86, -3.07, -2.63, -2.4, -1.58, -1.24, -1.24, 0.79, 2.99, 3.78, 3.07, 0.61, -0.6, -1.61, -2.91, -3.13, -1.7, -0.45, 1.86, 3.14, 4.09, 4.09, 4.09, -5.72, -5.72, -5.72, -6.01, -5.72, -5.72, -5.72, -5.72, -5.72, -5.72, -5.98, -5.7, -5.7, -5.7, -5.95, -5.95, -5.69, -5.69, -5.92, -5.92, -6.33, -6.31, -6.31, -6.56, -6.29, -6.29, -6.29, -6.29, -6.53, -6.27, -6.27, -6.27, -6.29, -5.89, -5.67, -5.04, -5.06, -5.08, -4.66, -4.44, -4.69, -4.69, -4.69, -4.44, -4.44, -4.44, -4.66, -4.66, -4.63, -4.63, -4.42, -4.66, -4.24, -4.45, -5.1, -5.44, -5.71, -5.71, -5.08, -4.45, -4.12, -4.11, -4.11, -3.49, -3.49, -3.49, -3.49, -3.49, -3.48, -1.9, -1.49, -1.24, -1.24, -0.57, 0.0, 0.0, -1.86, -3.51, -3.51, -3.07, -2.6, -1.9, -0.59, 0.73, 2.25, 2.25, 0.66, -0.6, -1.88, -2.4, -2.24, -0.0, 2.5, 3.49, 4.09, 5.05, 5.05, 5.05, -5.72, -5.72, -5.72, -5.72, -5.72, -5.72, -5.72, -6.0, -5.72, -5.72, -5.72, -5.98, -5.7, -5.7, -5.95, -5.95, -5.69, -5.69, -5.69, -5.92, -6.33, -6.07, -6.31, -6.31, -6.56, -6.29, -6.29, -6.29, -6.29, -6.53, -6.27, -6.53, -6.29, -5.89, -5.69, -5.04, -5.06, -5.32, -5.08, -4.66, -4.66, -4.66, -4.66, -4.66, -4.66, -4.66, -4.66, -4.66, -4.63, -4.63, -4.66, -4.24, -4.03, -4.03, -4.71, -5.72, -6.04, -6.32, -5.71, -5.08, -5.06, -4.43, -4.43, -4.11, -3.49, -3.22, -3.49, -3.49, -3.49, -1.9, -1.24, -1.24, -1.24, -0.6, 0.0, -0.71, -1.49, -3.51, -4.41, -4.02, -3.07, -2.91, -2.53, -1.52, 0.0, 0.74, 0.65, 0.0, -0.0, -0.0, -0.0, 3.16, 6.32, 5.43, 5.05, 6.4, 6.4, 6.4, -5.72, -5.72, -5.72, -5.72, -6.01, -5.72, -5.72, -5.72, -5.72, -5.72, -5.72, -5.98, -5.7, -5.7, -5.7, -5.95, -5.95, -5.69, -5.69, -5.92, -6.33, -6.33, -6.31, -6.31, -6.31, -6.56, -6.56, -6.29, -6.29, -6.53, -6.53, -6.53, -6.29, -5.67, -5.69, -5.04, -5.06, -5.32, -5.08, -5.08, -5.08, -5.08, -5.08, -5.08, -4.66, -4.66, -4.66, -5.32, -5.06, -5.06, -4.66, -4.69, -4.03, -4.05, -4.46, -5.1, -6.04, -6.34, -6.32, -6.01, -5.69, -5.06, -4.74, -4.43, -3.83, -3.49, -3.49, -3.49, -3.2, -2.21, -1.9, -2.23, -1.86, -1.2, -1.7, -2.23, -2.21, -2.86, -4.24, -3.58, -3.58, -3.07, -3.45, -3.11, -2.21, -0.77, 0.0, 0.0, 0.0, 1.34, 2.15, 4.75, 5.95, 6.4, 6.94, 6.94, 6.94, 6.94, -5.72, -5.72, -5.72, -5.72, -5.72, -5.72, -5.72, -5.72, -5.72, -5.72, -5.72, -5.98, -5.7, -5.7, -5.7, -5.95, -5.95, -5.69, -5.69, -6.33, -6.33, -6.33, -6.31, -6.31, -6.31, -6.31, -6.31, -6.56, -6.29, -6.29, -6.53, -6.29, -6.31, -5.67, -5.69, -5.29, -5.06, -5.06, -5.08, -5.08, -5.08, -5.08, -5.08, -5.08, -5.08, -5.08, -5.08, -5.32, -5.06, -5.06, -4.63, -4.69, -4.03, -4.05, -4.05, -5.1, -5.72, -6.34, -6.64, -6.32, -6.01, -5.69, -5.37, -4.74, -4.43, -3.83, -3.49, -3.22, -3.49, -3.48, -4.0, -2.23, -1.49, -1.26, -1.86, -2.4, -1.9, -1.9, -1.24, -2.6, -2.4, -2.8, -2.84, -3.55, -3.02, -1.55, -0.78, 0.0, 0.0, 0.66, 2.15, 3.07, 5.44, 7.89, 8.4, 7.98, 7.98, 7.98, -5.72, -5.72, -5.72, -5.72, -5.72, -5.72, -5.72, -5.72, -6.0, -5.72, -5.72, -5.72, -5.98, -5.7, -5.7, -5.95, -5.95, -5.69, -6.08, -6.33, -6.33, -6.33, -6.58, -6.31, -6.31, -6.31, -6.31, -6.31, -6.29, -6.29, -6.29, -6.29, -6.31, -5.92, -5.69, -5.29, -5.06, -5.06, -5.32, -5.08, -5.08, -5.08, -5.08, -5.08, -5.08, -5.08, -5.08, -5.32, -5.06, -5.06, -4.63, -4.69, -4.45, -4.05, -4.05, -4.46, -5.72, -6.04, -6.64, -6.32, -6.32, -6.01, -5.69, -5.37, -4.45, -4.43, -3.83, -3.49, -3.49, -3.48, -3.43, -1.58, -1.26, -1.6, -0.6, -1.26, -1.26, -0.57, 0.0, -0.71, -1.9, -2.53, -2.79, -3.79, -3.02, -2.31, -0.78, 0.0, 0.68, 0.69, 1.32, 2.51, 4.43, 7.92, 8.55, 8.06, 8.06, 8.06, -5.72, -5.72, -5.72, -5.72, -5.72, -5.72, -5.72, -5.72, -6.0, -5.72, -5.72, -5.72, -5.98, -5.7, -5.7, -5.7, -5.95, -5.95, -6.08, -6.33, -6.33, -6.33, -6.33, -6.58, -6.31, -6.31, -6.31, -6.31, -6.56, -6.29, -6.29, -6.56, -5.89, -5.69, -5.45, -5.29, -5.29, -5.06, -5.32, -5.32, -5.08, -5.08, -5.08, -5.08, -5.08, -5.08, -5.32, -5.32, -5.06, -5.06, -4.66, -4.69, -4.45, -4.71, -4.05, -4.46, -5.1, -5.72, -6.04, -6.32, -6.32, -6.01, -6.01, -5.69, -5.06, -4.45, -4.12, -3.83, -3.49, -3.48, -3.16, -2.23, -1.88, 0.0, 0.0, -0.63, -0.63, -0.6, 0.0, -0.57, -1.61, -2.53, -2.73, -3.79, -3.78, -2.28, -0.75, 0.0, 0.8, 0.75, 1.47, 2.26, 4.11, 6.67, 7.92, 7.89, 7.89, 7.89, -5.72, -5.72, -5.72, -5.72, -5.72, -5.72, -5.72, -5.72, -6.0, -5.72, -5.72, -5.72, -5.98, -5.7, -5.7, -5.7, -5.95, -5.95, -6.08, -6.33, -6.33, -6.33, -6.33, -6.58, -6.31, -6.31, -6.31, -6.31, -6.56, -6.29, -6.29, -6.56, -5.89, -5.69, -5.45, -5.29, -5.29, -5.06, -5.32, -5.32, -5.08, -5.08, -5.08, -5.08, -5.08, -5.08, -5.32, -5.32, -5.06, -5.06, -4.66, -4.69, -4.45, -4.71, -4.05, -4.46, -5.1, -5.72, -6.04, -6.32, -6.32, -6.01, -6.01, -5.69, -5.06, -4.45, -4.12, -3.83, -3.49, -3.48, -3.16, -2.23, -1.88, 0.0, 0.0, -0.63, -0.6, -0.6, 0.0, -0.57, -1.61, -2.53, -2.73, -3.79, -4.0, -2.31, -0.77, 0.0, 0.77, 1.58, 2.31, 3.15, 3.9, 4.93, 5.81, 6.21, 6.21, 6.21]}]